| time (UTC) | temp F | wind direction | speed MPH | gust MPH | rain 1hr in | rain 24hr in | rain mn in | humidity % | barometer mb |
| 20260510194803 | 68 | 305 | 2.0 | 9.0 | 0.00 | 0.06 | 0.06 | 76 | 1015.4 |
| 20260510194703 | 68 | 303 | 2.0 | 9.0 | 0.00 | 0.06 | 0.06 | 76 | 1015.3 |
| 20260510194603 | 68 | 303 | 2.0 | 9.0 | 0.00 | 0.06 | 0.06 | 76 | 1015.2 |
| 20260510194503 | 68 | 302 | 2.0 | 9.0 | 0.00 | 0.06 | 0.06 | 76 | 1015.2 |
| 20260510194403 | 68 | 300 | 2.0 | 9.0 | 0.00 | 0.06 | 0.06 | 76 | 1015.3 |
| 20260510194303 | 68 | 300 | 3.0 | 9.0 | 0.00 | 0.06 | 0.06 | 76 | 1015.2 |
| 20260510194203 | 68 | 300 | 3.0 | 9.0 | 0.00 | 0.06 | 0.06 | 76 | 1015.2 |
| 20260510194103 | 68 | 299 | 3.0 | 9.0 | 0.00 | 0.06 | 0.06 | 76 | 1015.2 |
| 20260510194003 | 68 | 300 | 4.0 | 9.0 | 0.00 | 0.06 | 0.06 | 76 | 1015.2 |
| 20260510193903 | 68 | 297 | 4.0 | 8.0 | 0.00 | 0.06 | 0.06 | 76 | 1015.3 |
| 20260510193803 | 68 | 297 | 4.0 | 8.0 | 0.00 | 0.06 | 0.06 | 76 | 1015.3 |
| 20260510193703 | 68 | 298 | 4.0 | 9.0 | 0.00 | 0.06 | 0.06 | 76 | 1015.2 |
| 20260510193603 | 68 | 299 | 4.0 | 9.0 | 0.00 | 0.06 | 0.06 | 76 | 1015.2 |
| 20260510193503 | 68 | 299 | 4.0 | 9.0 | 0.00 | 0.06 | 0.06 | 76 | 1015.2 |
| 20260510193403 | 68 | 298 | 4.0 | 9.0 | 0.00 | 0.06 | 0.06 | 76 | 1015.2 |
| 20260510193303 | 68 | 297 | 4.0 | 9.0 | 0.00 | 0.06 | 0.06 | 76 | 1015.2 |
| 20260510193203 | 68 | 298 | 4.0 | 9.0 | 0.00 | 0.06 | 0.06 | 76 | 1015.3 |
| 20260510193103 | 68 | 297 | 3.0 | 9.0 | 0.00 | 0.06 | 0.06 | 76 | 1015.2 |
| 20260510193003 | 68 | 296 | 3.0 | 9.0 | 0.00 | 0.06 | 0.06 | 76 | 1015.3 |
| 20260510192903 | 68 | 297 | 3.0 | 9.0 | 0.00 | 0.06 | 0.06 | 76 | 1015.2 |
| 20260510192803 | 68 | 299 | 3.0 | 9.0 | 0.00 | 0.06 | 0.06 | 76 | 1015.2 |
| 20260510192703 | 68 | 298 | 3.0 | 8.0 | 0.00 | 0.06 | 0.06 | 76 | 1015.2 |
| 20260510192603 | 68 | 299 | 3.0 | 8.0 | 0.00 | 0.06 | 0.06 | 76 | 1015.2 |
| 20260510192503 | 68 | 301 | 4.0 | 9.0 | 0.00 | 0.06 | 0.06 | 75 | 1015.3 |
| 20260510192403 | 68 | 303 | 4.0 | 9.0 | 0.00 | 0.06 | 0.06 | 75 | 1015.2 |
| 20260510192306 | 68 | 304 | 4.0 | 9.0 | 0.00 | 0.06 | 0.06 | 75 | 1015.2 |
| 20260510192203 | 68 | 304 | 4.0 | 9.0 | 0.00 | 0.06 | 0.06 | 75 | 1015.1 |
| 20260510192103 | 68 | 305 | 4.0 | 9.0 | 0.00 | 0.06 | 0.06 | 75 | 1015.2 |
| 20260510192003 | 68 | 305 | 4.0 | 9.0 | 0.00 | 0.06 | 0.06 | 75 | 1015.1 |
| 20260510191903 | 68 | 304 | 4.0 | 9.0 | 0.00 | 0.06 | 0.06 | 75 | 1015.1 |
| 20260510191803 | 68 | 303 | 4.0 | 9.0 | 0.00 | 0.06 | 0.06 | 75 | 1015.1 |
| 20260510191703 | 68 | 302 | 3.0 | 9.0 | 0.00 | 0.06 | 0.06 | 75 | 1015.1 |
| 20260510191603 | 68 | 300 | 3.0 | 9.0 | 0.00 | 0.06 | 0.06 | 75 | 1015.2 |
| 20260510191504 | 68 | 296 | 3.0 | 9.0 | 0.00 | 0.06 | 0.06 | 75 | 1015.1 |
| 20260510191403 | 68 | 297 | 3.0 | 9.0 | 0.00 | 0.06 | 0.06 | 74 | 1015.0 |
| 20260510191303 | 68 | 296 | 3.0 | 7.0 | 0.00 | 0.06 | 0.06 | 74 | 1015.1 |
| 20260510191203 | 68 | 296 | 3.0 | 9.0 | 0.00 | 0.06 | 0.06 | 74 | 1015.2 |
| 20260510191103 | 68 | 299 | 3.0 | 9.0 | 0.00 | 0.06 | 0.06 | 74 | 1015.1 |
| 20260510191003 | 68 | 298 | 3.0 | 9.0 | 0.00 | 0.06 | 0.06 | 74 | 1015.0 |
| 20260510190903 | 68 | 299 | 3.0 | 10.0 | 0.00 | 0.06 | 0.06 | 74 | 1014.9 |
| 20260510190803 | 68 | 298 | 4.0 | 10.0 | 0.00 | 0.06 | 0.06 | 74 | 1014.9 |
| 20260510190703 | 68 | 299 | 4.0 | 10.0 | 0.00 | 0.06 | 0.06 | 74 | 1014.9 |
| 20260510190603 | 68 | 300 | 3.0 | 10.0 | 0.00 | 0.06 | 0.06 | 74 | 1015.0 |
| 20260510190503 | 68 | 301 | 4.0 | 10.0 | 0.00 | 0.06 | 0.06 | 74 | 1014.9 |
| 20260510190403 | 68 | 300 | 3.0 | 10.0 | 0.00 | 0.06 | 0.06 | 73 | 1014.8 |
| 20260510190303 | 68 | 300 | 3.0 | 10.0 | 0.00 | 0.06 | 0.06 | 73 | 1014.9 |
| 20260510190203 | 69 | 298 | 3.0 | 10.0 | 0.00 | 0.06 | 0.06 | 73 | 1014.9 |
| 20260510190103 | 69 | 294 | 3.0 | 10.0 | 0.00 | 0.06 | 0.06 | 73 | 1014.8 |
| 20260510190003 | 69 | 295 | 2.0 | 10.0 | 0.00 | 0.06 | 0.06 | 73 | 1014.8 |
| 20260510185903 | 69 | 294 | 2.0 | 10.0 | 0.00 | 0.06 | 0.06 | 73 | 1014.8 |
| 20260510185803 | 69 | 296 | 1.0 | 5.0 | 0.00 | 0.06 | 0.06 | 73 | 1014.8 |
| 20260510185703 | 69 | 295 | 1.0 | 5.0 | 0.00 | 0.06 | 0.06 | 73 | 1014.8 |
| 20260510185603 | 69 | 294 | 1.0 | 5.0 | 0.00 | 0.06 | 0.06 | 73 | 1014.7 |
| 20260510185503 | 69 | 291 | 1.0 | 5.0 | 0.00 | 0.06 | 0.06 | 73 | 1014.8 |
| 20260510185403 | 69 | 291 | 1.0 | 5.0 | 0.00 | 0.06 | 0.06 | 73 | 1014.7 |
| 20260510185305 | 69 | 293 | 1.0 | 5.0 | 0.00 | 0.06 | 0.06 | 73 | 1014.8 |
| 20260510185203 | 69 | 299 | 0.0 | 4.0 | 0.00 | 0.06 | 0.06 | 73 | 1014.8 |
| 20260510185103 | 69 | 301 | 0.0 | 4.0 | 0.00 | 0.06 | 0.06 | 73 | 1014.7 |
| 20260510185003 | 69 | 292 | 0.0 | 3.0 | 0.00 | 0.06 | 0.06 | 73 | 1014.7 |
| 20260510184903 | 69 | 292 | 0.0 | 3.0 | 0.00 | 0.06 | 0.06 | 73 | 1014.8 |
| 20260510184803 | 69 | 292 | 0.0 | 3.0 | 0.00 | 0.06 | 0.06 | 73 | 1014.7 |
| 20260510184703 | 69 | 292 | 0.0 | 3.0 | 0.00 | 0.06 | 0.06 | 73 | 1014.7 |
| 20260510184603 | 69 | 292 | 0.0 | 3.0 | 0.00 | 0.06 | 0.06 | 73 | 1014.6 |
| 20260510184503 | 69 | 292 | 0.0 | 3.0 | 0.00 | 0.06 | 0.06 | 73 | 1014.6 |
| 20260510184403 | 69 | 292 | 0.0 | 3.0 | 0.00 | 0.06 | 0.06 | 73 | 1014.6 |
| 20260510184303 | 69 | 0 | 0.0 | 0.0 | 0.00 | 0.06 | 0.06 | 73 | 1014.6 |
| 20260510184203 | 69 | 0 | 0.0 | 0.0 | 0.00 | 0.06 | 0.06 | 73 | 1014.6 |
| 20260510184103 | 69 | 0 | 0.0 | 0.0 | 0.00 | 0.06 | 0.06 | 73 | 1014.5 |
| 20260510184003 | 69 | 0 | 0.0 | 0.0 | 0.00 | 0.06 | 0.06 | 72 | 1014.5 |
| 20260510183903 | 69 | 0 | 0.0 | 0.0 | 0.00 | 0.06 | 0.06 | 73 | 1014.6 |
| 20260510183804 | 69 | 292 | 0.0 | 2.0 | 0.00 | 0.06 | 0.06 | 73 | 1014.6 |
| 20260510183704 | 69 | 292 | 0.0 | 2.0 | 0.00 | 0.06 | 0.06 | 73 | 1014.5 |
| 20260510183604 | 69 | 292 | 0.0 | 2.0 | 0.00 | 0.06 | 0.06 | 73 | 1014.5 |
| 20260510183504 | 69 | 293 | 0.0 | 4.0 | 0.00 | 0.06 | 0.06 | 73 | 1014.6 |
| 20260510183404 | 69 | 292 | 1.0 | 4.0 | 0.00 | 0.06 | 0.06 | 73 | 1014.6 |
| 20260510183304 | 69 | 292 | 1.0 | 4.0 | 0.00 | 0.06 | 0.06 | 73 | 1014.6 |
| 20260510183204 | 69 | 292 | 1.0 | 4.0 | 0.00 | 0.06 | 0.06 | 73 | 1014.6 |
| 20260510183104 | 69 | 293 | 1.0 | 4.0 | 0.00 | 0.06 | 0.06 | 73 | 1014.5 |
| 20260510183004 | 69 | 293 | 1.0 | 5.0 | 0.00 | 0.06 | 0.06 | 73 | 1014.5 |
| 20260510182904 | 69 | 293 | 2.0 | 5.0 | 0.00 | 0.06 | 0.06 | 73 | 1014.6 |
| 20260510182804 | 69 | 293 | 2.0 | 5.0 | 0.00 | 0.06 | 0.06 | 72 | 1014.6 |
| 20260510182704 | 69 | 293 | 2.0 | 5.0 | 0.00 | 0.06 | 0.06 | 72 | 1014.5 |
| 20260510182604 | 69 | 293 | 2.0 | 5.0 | 0.00 | 0.06 | 0.06 | 72 | 1014.6 |
| 20260510182504 | 69 | 293 | 1.0 | 5.0 | 0.00 | 0.06 | 0.06 | 72 | 1014.7 |
| 20260510182404 | 69 | 293 | 2.0 | 5.0 | 0.00 | 0.06 | 0.06 | 72 | 1014.6 |
| 20260510182306 | 69 | 294 | 2.0 | 6.0 | 0.00 | 0.06 | 0.06 | 72 | 1014.5 |
| 20260510182204 | 69 | 294 | 2.0 | 6.0 | 0.00 | 0.06 | 0.06 | 72 | 1014.6 |
| 20260510182104 | 69 | 294 | 2.0 | 6.0 | 0.00 | 0.06 | 0.06 | 72 | 1014.6 |
| 20260510182004 | 69 | 294 | 2.0 | 6.0 | 0.00 | 0.06 | 0.06 | 72 | 1014.6 |
| 20260510181904 | 69 | 293 | 2.0 | 6.0 | 0.00 | 0.06 | 0.06 | 72 | 1014.6 |
| 20260510181804 | 69 | 293 | 2.0 | 6.0 | 0.00 | 0.06 | 0.06 | 72 | 1014.7 |
| 20260510181704 | 69 | 293 | 2.0 | 6.0 | 0.00 | 0.06 | 0.06 | 72 | 1014.8 |
| 20260510181604 | 69 | 293 | 2.0 | 6.0 | 0.00 | 0.06 | 0.06 | 71 | 1014.8 |
| 20260510181504 | 69 | 293 | 2.0 | 6.0 | 0.00 | 0.06 | 0.06 | 72 | 1014.7 |
| 20260510181404 | 69 | 293 | 2.0 | 6.0 | 0.00 | 0.06 | 0.06 | 71 | 1014.7 |
| 20260510181304 | 69 | 293 | 2.0 | 5.0 | 0.00 | 0.06 | 0.06 | 71 | 1014.7 |
| 20260510181204 | 69 | 293 | 1.0 | 5.0 | 0.00 | 0.06 | 0.06 | 71 | 1014.7 |
| 20260510181104 | 69 | 292 | 1.0 | 5.0 | 0.00 | 0.06 | 0.06 | 71 | 1014.7 |
| 20260510181004 | 69 | 292 | 1.0 | 5.0 | 0.00 | 0.06 | 0.06 | 71 | 1014.7 |
| 20260510180904 | 69 | 293 | 1.0 | 4.0 | 0.00 | 0.06 | 0.06 | 71 | 1014.7 |
| 20260510180804 | 69 | 293 | 1.0 | 4.0 | 0.00 | 0.06 | 0.06 | 71 | 1014.7 |
| 20260510180704 | 69 | 293 | 1.0 | 4.0 | 0.00 | 0.06 | 0.06 | 70 | 1014.6 |
| 20260510180604 | 69 | 294 | 1.0 | 4.0 | 0.00 | 0.06 | 0.06 | 70 | 1014.6 |
| 20260510180504 | 69 | 293 | 1.0 | 4.0 | 0.00 | 0.06 | 0.06 | 70 | 1014.6 |
| 20260510180404 | 70 | 292 | 1.0 | 4.0 | 0.00 | 0.06 | 0.06 | 70 | 1014.6 |
| 20260510180304 | 70 | 293 | 1.0 | 4.0 | 0.00 | 0.06 | 0.06 | 70 | 1014.5 |
| 20260510180204 | 70 | 293 | 1.0 | 4.0 | 0.00 | 0.06 | 0.06 | 70 | 1014.5 |
| 20260510180104 | 70 | 293 | 1.0 | 4.0 | 0.00 | 0.06 | 0.06 | 70 | 1014.6 |
| 20260510180004 | 70 | 293 | 1.0 | 4.0 | 0.00 | 0.06 | 0.06 | 70 | 1014.6 |
| 20260510175904 | 70 | 294 | 1.0 | 4.0 | 0.00 | 0.06 | 0.06 | 70 | 1014.7 |
| 20260510175804 | 70 | 295 | 1.0 | 4.0 | 0.00 | 0.06 | 0.06 | 70 | 1014.6 |
| 20260510175704 | 70 | 294 | 1.0 | 4.0 | 0.00 | 0.06 | 0.06 | 70 | 1014.7 |
| 20260510175604 | 70 | 293 | 1.0 | 4.0 | 0.00 | 0.06 | 0.06 | 70 | 1014.6 |
| 20260510175503 | 70 | 294 | 2.0 | 6.0 | 0.00 | 0.06 | 0.06 | 71 | 1014.7 |
| 20260510175403 | 70 | 295 | 2.0 | 6.0 | 0.00 | 0.06 | 0.06 | 70 | 1014.6 |
| 20260510175306 | 70 | 294 | 2.0 | 7.0 | 0.00 | 0.06 | 0.06 | 70 | 1014.6 |
| 20260510175204 | 70 | 293 | 2.0 | 7.0 | 0.00 | 0.06 | 0.06 | 70 | 1014.7 |
| 20260510175103 | 70 | 294 | 2.0 | 7.0 | 0.00 | 0.06 | 0.06 | 70 | 1014.6 |
| 20260510175003 | 70 | 294 | 3.0 | 7.0 | 0.00 | 0.06 | 0.06 | 70 | 1014.7 |
| 20260510174903 | 70 | 294 | 3.0 | 7.0 | 0.00 | 0.06 | 0.06 | 70 | 1014.6 |
| 20260510174803 | 70 | 294 | 3.0 | 7.0 | 0.00 | 0.06 | 0.06 | 70 | 1014.7 |
| 20260510174703 | 70 | 295 | 3.0 | 7.0 | 0.00 | 0.06 | 0.06 | 70 | 1014.7 |
| 20260510174603 | 70 | 295 | 3.0 | 7.0 | 0.00 | 0.06 | 0.06 | 70 | 1014.6 |
| 20260510174503 | 70 | 295 | 3.0 | 7.0 | 0.00 | 0.06 | 0.06 | 70 | 1014.6 |
| 20260510174403 | 70 | 295 | 3.0 | 7.0 | 0.00 | 0.06 | 0.06 | 70 | 1014.7 |
| 20260510174303 | 70 | 295 | 2.0 | 6.0 | 0.00 | 0.06 | 0.06 | 70 | 1014.6 |
| 20260510174203 | 70 | 295 | 2.0 | 6.0 | 0.00 | 0.06 | 0.06 | 70 | 1014.6 |
| 20260510174103 | 70 | 296 | 2.0 | 6.0 | 0.00 | 0.06 | 0.06 | 70 | 1014.6 |
| 20260510174003 | 70 | 295 | 2.0 | 6.0 | 0.00 | 0.06 | 0.06 | 70 | 1014.6 |
| 20260510173903 | 70 | 295 | 3.0 | 6.0 | 0.00 | 0.06 | 0.06 | 70 | 1014.6 |
| 20260510173803 | 70 | 294 | 3.0 | 6.0 | 0.00 | 0.06 | 0.06 | 70 | 1014.6 |
| 20260510173703 | 70 | 293 | 3.0 | 6.0 | 0.00 | 0.06 | 0.06 | 70 | 1014.7 |
| 20260510173603 | 70 | 293 | 3.0 | 6.0 | 0.00 | 0.06 | 0.06 | 70 | 1014.5 |
| 20260510173503 | 70 | 293 | 3.0 | 6.0 | 0.00 | 0.06 | 0.06 | 70 | 1014.6 |
| 20260510173403 | 70 | 293 | 3.0 | 6.0 | 0.00 | 0.06 | 0.06 | 70 | 1014.7 |
| 20260510173303 | 70 | 293 | 3.0 | 6.0 | 0.00 | 0.06 | 0.06 | 70 | 1014.7 |
| 20260510173203 | 70 | 293 | 3.0 | 6.0 | 0.00 | 0.06 | 0.06 | 70 | 1014.6 |
| 20260510173103 | 70 | 293 | 3.0 | 6.0 | 0.00 | 0.06 | 0.06 | 70 | 1014.6 |
| 20260510173004 | 70 | 293 | 3.0 | 6.0 | 0.00 | 0.06 | 0.06 | 70 | 1014.6 |
| 20260510172903 | 70 | 293 | 3.0 | 6.0 | 0.00 | 0.06 | 0.06 | 70 | 1014.6 |
| 20260510172803 | 70 | 293 | 2.0 | 6.0 | 0.00 | 0.06 | 0.06 | 70 | 1014.6 |
| 20260510172703 | 70 | 295 | 2.0 | 6.0 | 0.00 | 0.06 | 0.06 | 70 | 1014.6 |
| 20260510172603 | 70 | 295 | 2.0 | 6.0 | 0.00 | 0.06 | 0.06 | 70 | 1014.5 |
| 20260510172503 | 70 | 295 | 2.0 | 6.0 | 0.00 | 0.06 | 0.06 | 69 | 1014.5 |
| 20260510172403 | 70 | 295 | 2.0 | 7.0 | 0.00 | 0.06 | 0.06 | 69 | 1014.6 |
| 20260510172306 | 70 | 295 | 3.0 | 7.0 | 0.00 | 0.06 | 0.06 | 69 | 1014.6 |
| 20260510172204 | 70 | 295 | 3.0 | 7.0 | 0.00 | 0.06 | 0.06 | 69 | 1014.6 |
| 20260510172103 | 70 | 295 | 3.0 | 7.0 | 0.00 | 0.06 | 0.06 | 69 | 1014.6 |
| 20260510172004 | 71 | 294 | 3.0 | 7.0 | 0.00 | 0.06 | 0.06 | 69 | 1014.6 |
| 20260510171903 | 71 | 294 | 3.0 | 7.0 | 0.00 | 0.06 | 0.06 | 69 | 1014.6 |
| 20260510171803 | 71 | 294 | 3.0 | 7.0 | 0.00 | 0.06 | 0.06 | 69 | 1014.6 |
| 20260510171703 | 71 | 293 | 3.0 | 7.0 | 0.00 | 0.06 | 0.06 | 69 | 1014.6 |
| 20260510171603 | 71 | 293 | 3.0 | 7.0 | 0.00 | 0.06 | 0.06 | 69 | 1014.5 |
| 20260510171503 | 71 | 292 | 3.0 | 7.0 | 0.00 | 0.06 | 0.06 | 69 | 1014.6 |
| 20260510171403 | 71 | 292 | 3.0 | 6.0 | 0.00 | 0.06 | 0.06 | 69 | 1014.5 |
| 20260510171303 | 71 | 293 | 3.0 | 6.0 | 0.00 | 0.06 | 0.06 | 69 | 1014.6 |
| 20260510171203 | 71 | 293 | 3.0 | 6.0 | 0.00 | 0.06 | 0.06 | 68 | 1014.6 |
| 20260510171103 | 71 | 293 | 2.0 | 6.0 | 0.00 | 0.06 | 0.06 | 68 | 1014.5 |
| 20260510171003 | 71 | 294 | 2.0 | 6.0 | 0.00 | 0.06 | 0.06 | 68 | 1014.5 |
| 20260510170903 | 71 | 295 | 2.0 | 6.0 | 0.00 | 0.06 | 0.06 | 68 | 1014.5 |
| 20260510170803 | 71 | 295 | 2.0 | 6.0 | 0.00 | 0.06 | 0.06 | 68 | 1014.5 |
| 20260510170703 | 71 | 296 | 3.0 | 8.0 | 0.00 | 0.06 | 0.06 | 68 | 1014.6 |
| 20260510170603 | 71 | 298 | 3.0 | 8.0 | 0.00 | 0.06 | 0.06 | 68 | 1014.5 |
| 20260510170503 | 71 | 298 | 3.0 | 8.0 | 0.00 | 0.06 | 0.06 | 68 | 1014.4 |
| 20260510170403 | 71 | 297 | 3.0 | 8.0 | 0.00 | 0.06 | 0.06 | 68 | 1014.4 |
| 20260510170303 | 71 | 297 | 3.0 | 8.0 | 0.00 | 0.06 | 0.06 | 68 | 1014.5 |
| 20260510170203 | 72 | 298 | 3.0 | 8.0 | 0.00 | 0.06 | 0.06 | 68 | 1014.4 |
| 20260510170003 | 72 | 297 | 4.0 | 8.0 | 0.00 | 0.06 | 0.06 | 68 | 1014.4 |
| 20260510165903 | 72 | 296 | 4.0 | 8.0 | 0.00 | 0.06 | 0.06 | 68 | 1014.5 |
| 20260510165803 | 72 | 296 | 4.0 | 8.0 | 0.00 | 0.06 | 0.06 | 68 | 1014.4 |
| 20260510165703 | 72 | 295 | 4.0 | 9.0 | 0.00 | 0.06 | 0.06 | 68 | 1014.5 |
| 20260510165603 | 72 | 293 | 4.0 | 9.0 | 0.00 | 0.06 | 0.06 | 68 | 1014.5 |
| 20260510165503 | 72 | 293 | 4.0 | 9.0 | 0.00 | 0.06 | 0.06 | 68 | 1014.5 |
| 20260510165403 | 72 | 294 | 4.0 | 9.0 | 0.00 | 0.06 | 0.06 | 68 | 1014.5 |
| 20260510165306 | 72 | 294 | 3.0 | 9.0 | 0.00 | 0.06 | 0.06 | 67 | 1014.5 |
| 20260510165203 | 72 | 293 | 3.0 | 9.0 | 0.00 | 0.06 | 0.06 | 67 | 1014.5 |
| 20260510165103 | 73 | 292 | 3.0 | 9.0 | 0.00 | 0.06 | 0.06 | 67 | 1014.4 |
| 20260510165003 | 73 | 292 | 3.0 | 9.0 | 0.00 | 0.06 | 0.06 | 67 | 1014.4 |
| 20260510164903 | 73 | 293 | 3.0 | 9.0 | 0.00 | 0.06 | 0.06 | 67 | 1014.4 |
| 20260510164803 | 73 | 294 | 2.0 | 9.0 | 0.00 | 0.06 | 0.06 | 67 | 1014.4 |
| 20260510164703 | 73 | 296 | 2.0 | 7.0 | 0.00 | 0.06 | 0.06 | 67 | 1014.4 |
| 20260510164603 | 73 | 296 | 2.0 | 7.0 | 0.00 | 0.06 | 0.06 | 66 | 1014.4 |
| 20260510164503 | 73 | 296 | 2.0 | 7.0 | 0.00 | 0.06 | 0.06 | 66 | 1014.4 |
| 20260510164403 | 73 | 298 | 2.0 | 7.0 | 0.00 | 0.06 | 0.06 | 66 | 1014.4 |
| 20260510164303 | 73 | 299 | 2.0 | 7.0 | 0.00 | 0.06 | 0.06 | 66 | 1014.4 |
| 20260510164203 | 73 | 298 | 3.0 | 7.0 | 0.00 | 0.06 | 0.06 | 66 | 1014.4 |
| 20260510164103 | 73 | 300 | 2.0 | 7.0 | 0.00 | 0.06 | 0.06 | 66 | 1014.4 |
| 20260510164003 | 73 | 299 | 3.0 | 7.0 | 0.00 | 0.06 | 0.06 | 65 | 1014.4 |
| 20260510163903 | 74 | 300 | 3.0 | 7.0 | 0.00 | 0.06 | 0.06 | 65 | 1014.4 |
| 20260510163803 | 74 | 299 | 3.0 | 7.0 | 0.00 | 0.06 | 0.06 | 65 | 1014.4 |
| 20260510163703 | 74 | 299 | 3.0 | 7.0 | 0.00 | 0.06 | 0.06 | 65 | 1014.4 |
| 20260510163603 | 74 | 299 | 2.0 | 7.0 | 0.00 | 0.06 | 0.06 | 65 | 1014.4 |
| 20260510163503 | 74 | 300 | 2.0 | 7.0 | 0.00 | 0.06 | 0.06 | 65 | 1014.4 |
| 20260510163403 | 74 | 297 | 2.0 | 7.0 | 0.00 | 0.06 | 0.06 | 65 | 1014.4 |
| 20260510163303 | 74 | 296 | 1.0 | 7.0 | 0.00 | 0.06 | 0.06 | 65 | 1014.4 |
| 20260510163203 | 74 | 298 | 1.0 | 7.0 | 0.00 | 0.06 | 0.06 | 65 | 1014.3 |
| 20260510163103 | 74 | 299 | 1.0 | 7.0 | 0.00 | 0.06 | 0.06 | 65 | 1014.4 |
| 20260510163003 | 74 | 302 | 1.0 | 6.0 | 0.00 | 0.06 | 0.06 | 65 | 1014.4 |
| 20260510162903 | 74 | 297 | 1.0 | 4.0 | 0.00 | 0.06 | 0.06 | 65 | 1014.4 |
| 20260510162803 | 74 | 298 | 1.0 | 4.0 | 0.00 | 0.06 | 0.06 | 65 | 1014.2 |
| 20260510162703 | 74 | 298 | 1.0 | 4.0 | 0.00 | 0.06 | 0.06 | 65 | 1014.3 |
| 20260510162603 | 74 | 298 | 1.0 | 4.0 | 0.00 | 0.06 | 0.06 | 65 | 1014.3 |
| 20260510162503 | 74 | 298 | 1.0 | 4.0 | 0.00 | 0.06 | 0.06 | 65 | 1014.4 |
| 20260510162403 | 74 | 296 | 1.0 | 4.0 | 0.00 | 0.06 | 0.06 | 65 | 1014.4 |
| 20260510162306 | 74 | 297 | 1.0 | 4.0 | 0.00 | 0.06 | 0.06 | 64 | 1014.4 |
| 20260510162203 | 74 | 298 | 1.0 | 4.0 | 0.00 | 0.06 | 0.06 | 64 | 1014.4 |
| 20260510162103 | 74 | 297 | 1.0 | 4.0 | 0.00 | 0.06 | 0.06 | 64 | 1014.4 |
| 20260510162003 | 74 | 296 | 1.0 | 4.0 | 0.00 | 0.06 | 0.06 | 64 | 1014.4 |
| 20260510161903 | 74 | 294 | 1.0 | 4.0 | 0.00 | 0.06 | 0.06 | 64 | 1014.3 |
| 20260510161803 | 74 | 290 | 1.0 | 4.0 | 0.00 | 0.06 | 0.06 | 64 | 1014.3 |
| 20260510161703 | 74 | 290 | 1.0 | 4.0 | 0.00 | 0.06 | 0.06 | 64 | 1014.3 |
| 20260510161603 | 74 | 290 | 1.0 | 4.0 | 0.00 | 0.06 | 0.06 | 64 | 1014.3 |
| 20260510161503 | 74 | 292 | 1.0 | 4.0 | 0.00 | 0.06 | 0.06 | 64 | 1014.3 |
| 20260510161403 | 74 | 292 | 1.0 | 5.0 | 0.00 | 0.06 | 0.06 | 63 | 1014.4 |
| 20260510161303 | 74 | 292 | 1.0 | 5.0 | 0.00 | 0.06 | 0.06 | 63 | 1014.4 |
| 20260510161203 | 75 | 292 | 1.0 | 5.0 | 0.00 | 0.06 | 0.06 | 63 | 1014.3 |
| 20260510161103 | 75 | 293 | 2.0 | 6.0 | 0.00 | 0.06 | 0.06 | 63 | 1014.2 |
| 20260510161003 | 75 | 292 | 2.0 | 6.0 | 0.00 | 0.06 | 0.06 | 63 | 1014.3 |
| 20260510160903 | 75 | 294 | 2.0 | 8.0 | 0.00 | 0.06 | 0.06 | 63 | 1014.3 |
| 20260510160803 | 75 | 294 | 2.0 | 8.0 | 0.00 | 0.06 | 0.06 | 63 | 1014.4 |
| 20260510160703 | 75 | 294 | 2.0 | 8.0 | 0.00 | 0.06 | 0.06 | 62 | 1014.4 |
| 20260510160603 | 75 | 294 | 2.0 | 8.0 | 0.00 | 0.06 | 0.06 | 62 | 1014.3 |
| 20260510160503 | 75 | 294 | 2.0 | 8.0 | 0.00 | 0.06 | 0.06 | 62 | 1014.3 |
| 20260510160404 | 75 | 294 | 2.0 | 8.0 | 0.00 | 0.06 | 0.06 | 62 | 1014.4 |
| 20260510160304 | 75 | 295 | 2.0 | 8.0 | 0.00 | 0.06 | 0.06 | 62 | 1014.4 |
| 20260510160204 | 75 | 295 | 2.0 | 8.0 | 0.00 | 0.06 | 0.06 | 62 | 1014.4 |
| 20260510160104 | 75 | 295 | 2.0 | 8.0 | 0.00 | 0.06 | 0.06 | 62 | 1014.4 |
| 20260510160004 | 75 | 297 | 1.0 | 8.0 | 0.00 | 0.06 | 0.06 | 61 | 1014.4 |
| 20260510155904 | 75 | 296 | 1.0 | 6.0 | 0.00 | 0.06 | 0.06 | 61 | 1014.4 |
| 20260510155804 | 75 | 294 | 1.0 | 6.0 | 0.00 | 0.06 | 0.06 | 61 | 1014.4 |
| 20260510155704 | 75 | 294 | 1.0 | 6.0 | 0.00 | 0.06 | 0.06 | 61 | 1014.4 |
| 20260510155604 | 75 | 290 | 1.0 | 6.0 | 0.00 | 0.06 | 0.06 | 61 | 1014.4 |
| 20260510155504 | 75 | 290 | 1.0 | 6.0 | 0.00 | 0.06 | 0.06 | 61 | 1014.4 |
| 20260510155404 | 75 | 291 | 1.0 | 6.0 | 0.00 | 0.06 | 0.06 | 60 | 1014.4 |
| 20260510155306 | 75 | 281 | 1.0 | 6.0 | 0.00 | 0.06 | 0.06 | 60 | 1014.4 |
| 20260510155204 | 76 | 128 | 0.0 | 4.0 | 0.00 | 0.06 | 0.06 | 59 | 1014.4 |
| 20260510155104 | 76 | 134 | 0.0 | 4.0 | 0.00 | 0.06 | 0.06 | 59 | 1014.4 |
| 20260510155004 | 76 | 167 | 0.0 | 4.0 | 0.00 | 0.06 | 0.06 | 59 | 1014.4 |
| 20260510154904 | 76 | 146 | 1.0 | 4.0 | 0.00 | 0.06 | 0.06 | 59 | 1014.4 |
| 20260510154804 | 76 | 169 | 0.0 | 4.0 | 0.00 | 0.06 | 0.06 | 59 | 1014.4 |
| 20260510154704 | 76 | 125 | 1.0 | 4.0 | 0.00 | 0.06 | 0.06 | 60 | 1014.4 |
| 20260510154604 | 76 | 123 | 1.0 | 4.0 | 0.00 | 0.06 | 0.06 | 60 | 1014.5 |
| 20260510154504 | 76 | 123 | 1.0 | 4.0 | 0.00 | 0.06 | 0.06 | 60 | 1014.5 |
| 20260510154404 | 76 | 126 | 1.0 | 4.0 | 0.00 | 0.06 | 0.06 | 60 | 1014.5 |
| 20260510154304 | 76 | 126 | 1.0 | 4.0 | 0.00 | 0.06 | 0.06 | 59 | 1014.5 |
| 20260510154204 | 76 | 127 | 1.0 | 4.0 | 0.00 | 0.06 | 0.06 | 60 | 1014.5 |
| 20260510154104 | 76 | 123 | 1.0 | 4.0 | 0.00 | 0.06 | 0.06 | 60 | 1014.5 |
| 20260510154004 | 76 | 119 | 1.0 | 4.0 | 0.00 | 0.06 | 0.06 | 59 | 1014.5 |
| 20260510153904 | 76 | 120 | 0.0 | 4.0 | 0.00 | 0.06 | 0.06 | 59 | 1014.5 |
| 20260510153804 | 76 | 121 | 0.0 | 4.0 | 0.00 | 0.06 | 0.06 | 59 | 1014.5 |
| 20260510153704 | 76 | 135 | 0.0 | 3.0 | 0.00 | 0.06 | 0.06 | 59 | 1014.6 |
| 20260510153604 | 76 | 142 | 0.0 | 3.0 | 0.00 | 0.06 | 0.06 | 59 | 1014.5 |
| 20260510153504 | 76 | 177 | 0.0 | 3.0 | 0.00 | 0.06 | 0.06 | 58 | 1014.5 |
| 20260510153404 | 76 | 127 | 0.0 | 2.0 | 0.00 | 0.06 | 0.06 | 58 | 1014.5 |
| 20260510153304 | 76 | 112 | 0.0 | 1.0 | 0.00 | 0.06 | 0.06 | 58 | 1014.6 |
| 20260510153204 | 76 | 0 | 0.0 | 0.0 | 0.00 | 0.06 | 0.06 | 57 | 1014.7 |
| 20260510153104 | 76 | 0 | 0.0 | 0.0 | 0.00 | 0.06 | 0.06 | 57 | 1014.8 |
| 20260510153004 | 76 | 0 | 0.0 | 0.0 | 0.00 | 0.06 | 0.06 | 57 | 1014.7 |
| 20260510152904 | 76 | 0 | 0.0 | 0.0 | 0.00 | 0.06 | 0.06 | 57 | 1014.7 |
| 20260510152804 | 76 | 0 | 0.0 | 0.0 | 0.00 | 0.06 | 0.06 | 57 | 1014.7 |
| 20260510152704 | 75 | 0 | 0.0 | 0.0 | 0.00 | 0.06 | 0.06 | 56 | 1014.7 |
| 20260510152604 | 75 | 120 | 0.0 | 2.0 | 0.00 | 0.06 | 0.06 | 56 | 1014.7 |
| 20260510152504 | 75 | 114 | 0.0 | 2.0 | 0.00 | 0.06 | 0.06 | 56 | 1014.7 |
| 20260510152404 | 75 | 114 | 0.0 | 2.0 | 0.00 | 0.06 | 0.06 | 56 | 1014.7 |
| 20260510152307 | 75 | 105 | 0.0 | 4.0 | 0.00 | 0.06 | 0.06 | 56 | 1014.5 |
| 20260510152204 | 75 | 105 | 0.0 | 4.0 | 0.00 | 0.06 | 0.06 | 56 | 1014.6 |
| 20260510152104 | 75 | 105 | 0.0 | 4.0 | 0.00 | 0.06 | 0.06 | 55 | 1014.7 |
| 20260510152004 | 75 | 105 | 0.0 | 4.0 | 0.00 | 0.06 | 0.06 | 55 | 1014.7 |
| 20260510151904 | 75 | 105 | 0.0 | 4.0 | 0.00 | 0.06 | 0.06 | 55 | 1014.8 |
| 20260510151804 | 75 | 105 | 0.0 | 4.0 | 0.00 | 0.06 | 0.06 | 55 | 1014.8 |
| 20260510151704 | 75 | 108 | 0.0 | 4.0 | 0.00 | 0.06 | 0.06 | 55 | 1014.8 |
| 20260510151604 | 75 | 103 | 0.0 | 4.0 | 0.00 | 0.06 | 0.06 | 55 | 1014.9 |
| 20260510151504 | 75 | 306 | 0.0 | 5.0 | 0.00 | 0.06 | 0.06 | 55 | 1014.8 |
| 20260510151404 | 75 | 303 | 0.0 | 5.0 | 0.00 | 0.06 | 0.06 | 56 | 1014.8 |
| 20260510151304 | 75 | 296 | 0.0 | 5.0 | 0.00 | 0.06 | 0.06 | 56 | 1014.8 |
| 20260510151204 | 75 | 296 | 0.0 | 5.0 | 0.00 | 0.06 | 0.06 | 56 | 1014.8 |
| 20260510151104 | 75 | 298 | 1.0 | 5.0 | 0.00 | 0.06 | 0.06 | 56 | 1014.8 |
| 20260510151004 | 75 | 295 | 1.0 | 5.0 | 0.00 | 0.06 | 0.06 | 56 | 1014.7 |
| 20260510150904 | 75 | 295 | 1.0 | 5.0 | 0.00 | 0.06 | 0.06 | 56 | 1014.8 |
| 20260510150804 | 75 | 295 | 1.0 | 5.0 | 0.00 | 0.06 | 0.06 | 56 | 1014.8 |
| 20260510150704 | 75 | 297 | 1.0 | 5.0 | 0.00 | 0.06 | 0.06 | 56 | 1014.8 |
| 20260510150603 | 75 | 299 | 0.0 | 5.0 | 0.00 | 0.06 | 0.06 | 55 | 1014.8 |
| 20260510150504 | 75 | 288 | 0.0 | 3.0 | 0.00 | 0.06 | 0.06 | 55 | 1014.9 |
| 20260510150404 | 75 | 252 | 0.0 | 3.0 | 0.00 | 0.06 | 0.06 | 55 | 1014.9 |
| 20260510150303 | 75 | 258 | 0.0 | 3.0 | 0.00 | 0.06 | 0.06 | 55 | 1014.9 |
| 20260510150203 | 75 | 277 | 1.0 | 4.0 | 0.00 | 0.06 | 0.06 | 55 | 1014.9 |
| 20260510150103 | 75 | 284 | 1.0 | 4.0 | 0.00 | 0.06 | 0.06 | 55 | 1014.9 |
| 20260510150004 | 74 | 285 | 1.0 | 4.0 | 0.00 | 0.06 | 0.06 | 55 | 1014.9 |
| 20260510145903 | 75 | 285 | 1.0 | 4.0 | 0.00 | 0.06 | 0.06 | 55 | 1014.9 |
| 20260510145804 | 75 | 284 | 1.0 | 4.0 | 0.00 | 0.06 | 0.06 | 55 | 1015.0 |
| 20260510145703 | 75 | 285 | 1.0 | 4.0 | 0.00 | 0.06 | 0.06 | 55 | 1014.9 |
| 20260510145603 | 75 | 285 | 1.0 | 4.0 | 0.00 | 0.06 | 0.06 | 55 | 1015.1 |
| 20260510145503 | 75 | 286 | 1.0 | 4.0 | 0.00 | 0.06 | 0.06 | 55 | 1015.1 |
| 20260510145404 | 75 | 293 | 0.0 | 4.0 | 0.00 | 0.06 | 0.06 | 55 | 1015.0 |
| 20260510145306 | 75 | 294 | 0.0 | 4.0 | 0.00 | 0.06 | 0.06 | 55 | 1015.0 |
| 20260510145203 | 75 | 313 | 0.0 | 3.0 | 0.00 | 0.06 | 0.06 | 55 | 1015.0 |
| 20260510145103 | 75 | 108 | 0.0 | 2.0 | 0.00 | 0.06 | 0.06 | 55 | 1014.9 |
| 20260510145003 | 75 | 108 | 0.0 | 2.0 | 0.00 | 0.06 | 0.06 | 55 | 1015.0 |
| 20260510144903 | 75 | 109 | 0.0 | 2.0 | 0.00 | 0.06 | 0.06 | 55 | 1015.1 |
| 20260510144803 | 75 | 105 | 0.0 | 2.0 | 0.00 | 0.06 | 0.06 | 55 | 1015.0 |
| 20260510144703 | 75 | 110 | 0.0 | 2.0 | 0.00 | 0.06 | 0.06 | 55 | 1015.0 |
| 20260510144603 | 75 | 110 | 0.0 | 2.0 | 0.00 | 0.06 | 0.06 | 55 | 1015.0 |
| 20260510144503 | 75 | 114 | 0.0 | 2.0 | 0.00 | 0.06 | 0.06 | 55 | 1015.1 |
| 20260510144403 | 75 | 115 | 0.0 | 2.0 | 0.00 | 0.06 | 0.06 | 55 | 1015.1 |
| 20260510144303 | 75 | 118 | 0.0 | 2.0 | 0.00 | 0.06 | 0.06 | 55 | 1015.1 |
| 20260510144203 | 76 | 120 | 0.0 | 2.0 | 0.00 | 0.06 | 0.06 | 55 | 1015.1 |
| 20260510144103 | 76 | 120 | 0.0 | 2.0 | 0.00 | 0.06 | 0.06 | 55 | 1015.0 |
| 20260510144003 | 76 | 120 | 0.0 | 2.0 | 0.00 | 0.06 | 0.06 | 55 | 1014.9 |
| 20260510143903 | 76 | 135 | 0.0 | 2.0 | 0.00 | 0.06 | 0.06 | 55 | 1015.1 |
| 20260510143803 | 75 | 135 | 0.0 | 2.0 | 0.00 | 0.06 | 0.06 | 55 | 1015.1 |
| 20260510143703 | 76 | 135 | 0.0 | 2.0 | 0.00 | 0.06 | 0.06 | 55 | 1015.1 |
| 20260510143603 | 76 | 124 | 0.0 | 2.0 | 0.00 | 0.06 | 0.06 | 55 | 1015.1 |
| 20260510143503 | 76 | 112 | 0.0 | 3.0 | 0.00 | 0.06 | 0.06 | 55 | 1015.1 |
| 20260510143403 | 76 | 106 | 0.0 | 3.0 | 0.00 | 0.06 | 0.06 | 55 | 1015.1 |
| 20260510143303 | 76 | 109 | 0.0 | 3.0 | 0.00 | 0.06 | 0.06 | 55 | 1015.1 |
| 20260510143203 | 76 | 110 | 0.0 | 3.0 | 0.00 | 0.06 | 0.06 | 55 | 1015.1 |
| 20260510143103 | 76 | 110 | 0.0 | 3.0 | 0.00 | 0.06 | 0.06 | 55 | 1015.0 |
| 20260510143003 | 76 | 110 | 0.0 | 3.0 | 0.00 | 0.06 | 0.06 | 55 | 1015.1 |
| 20260510142903 | 76 | 110 | 0.0 | 3.0 | 0.00 | 0.06 | 0.06 | 55 | 1015.1 |
| 20260510142803 | 76 | 110 | 0.0 | 3.0 | 0.00 | 0.06 | 0.06 | 55 | 1015.1 |
| 20260510142703 | 76 | 110 | 0.0 | 3.0 | 0.00 | 0.06 | 0.06 | 55 | 1015.1 |
| 20260510142603 | 76 | 110 | 0.0 | 3.0 | 0.00 | 0.06 | 0.06 | 55 | 1015.1 |
| 20260510142503 | 76 | 109 | 0.0 | 3.0 | 0.00 | 0.06 | 0.06 | 55 | 1015.1 |
| 20260510142403 | 76 | 112 | 0.0 | 3.0 | 0.00 | 0.06 | 0.06 | 55 | 1015.1 |
| 20260510142306 | 76 | 112 | 0.0 | 2.0 | 0.00 | 0.06 | 0.06 | 55 | 1015.1 |
| 20260510142203 | 76 | 292 | 0.0 | 4.0 | 0.00 | 0.06 | 0.06 | 56 | 1015.0 |
| 20260510142103 | 76 | 292 | 0.0 | 4.0 | 0.00 | 0.06 | 0.06 | 56 | 1015.0 |
| 20260510142003 | 76 | 291 | 1.0 | 4.0 | 0.00 | 0.06 | 0.06 | 55 | 1015.0 |
| 20260510141903 | 76 | 289 | 1.0 | 4.0 | 0.00 | 0.06 | 0.06 | 55 | 1015.0 |
| 20260510141803 | 76 | 289 | 1.0 | 4.0 | 0.00 | 0.06 | 0.06 | 55 | 1015.1 |
| 20260510141703 | 76 | 289 | 1.0 | 4.0 | 0.00 | 0.06 | 0.06 | 55 | 1015.2 |
| 20260510141603 | 76 | 289 | 1.0 | 4.0 | 0.00 | 0.06 | 0.06 | 55 | 1015.1 |
| 20260510141503 | 76 | 289 | 1.0 | 4.0 | 0.00 | 0.06 | 0.06 | 55 | 1015.1 |
| 20260510141403 | 76 | 290 | 1.0 | 4.0 | 0.00 | 0.06 | 0.06 | 55 | 1015.1 |
| 20260510141303 | 76 | 289 | 1.0 | 4.0 | 0.00 | 0.06 | 0.06 | 55 | 1015.1 |
| 20260510141203 | 76 | 288 | 0.0 | 4.0 | 0.00 | 0.06 | 0.06 | 55 | 1015.1 |
| 20260510141103 | 76 | 286 | 0.0 | 4.0 | 0.00 | 0.06 | 0.06 | 54 | 1015.0 |
| 20260510141003 | 76 | 253 | 0.0 | 2.0 | 0.00 | 0.06 | 0.06 | 54 | 1015.1 |
| 20260510140903 | 76 | 135 | 0.0 | 2.0 | 0.00 | 0.06 | 0.06 | 54 | 1015.1 |
| 20260510140803 | 76 | 135 | 0.0 | 2.0 | 0.00 | 0.06 | 0.06 | 54 | 1015.1 |
| 20260510140703 | 76 | 135 | 0.0 | 2.0 | 0.00 | 0.06 | 0.06 | 54 | 1015.0 |
| 20260510140603 | 76 | 135 | 0.0 | 2.0 | 0.00 | 0.06 | 0.06 | 54 | 1015.0 |
| 20260510140503 | 76 | 135 | 0.0 | 2.0 | 0.00 | 0.06 | 0.06 | 54 | 1015.0 |
| 20260510140403 | 76 | 135 | 0.0 | 2.0 | 0.00 | 0.06 | 0.06 | 54 | 1014.9 |
| 20260510140303 | 77 | 135 | 0.0 | 2.0 | 0.00 | 0.06 | 0.06 | 54 | 1015.0 |
| 20260510140203 | 77 | 121 | 0.0 | 2.0 | 0.00 | 0.06 | 0.06 | 54 | 1015.0 |
| 20260510140003 | 77 | 113 | 0.0 | 3.0 | 0.00 | 0.06 | 0.06 | 54 | 1015.0 |
| 20260510135903 | 77 | 109 | 0.0 | 3.0 | 0.00 | 0.06 | 0.06 | 55 | 1015.0 |
| 20260510135803 | 77 | 109 | 0.0 | 3.0 | 0.00 | 0.06 | 0.06 | 55 | 1015.0 |
| 20260510135703 | 77 | 110 | 0.0 | 4.0 | 0.00 | 0.06 | 0.06 | 55 | 1014.9 |
| 20260510135603 | 77 | 111 | 0.0 | 4.0 | 0.00 | 0.06 | 0.06 | 55 | 1014.9 |
| 20260510135503 | 77 | 110 | 0.0 | 4.0 | 0.00 | 0.06 | 0.06 | 55 | 1014.9 |
| 20260510135403 | 77 | 109 | 0.0 | 4.0 | 0.00 | 0.06 | 0.06 | 56 | 1014.8 |
| 20260510135306 | 77 | 107 | 1.0 | 4.0 | 0.00 | 0.06 | 0.06 | 56 | 1014.8 |
| 20260510135203 | 77 | 107 | 1.0 | 4.0 | 0.00 | 0.06 | 0.06 | 56 | 1014.8 |
| 20260510135103 | 77 | 108 | 1.0 | 4.0 | 0.00 | 0.06 | 0.06 | 56 | 1014.8 |
| 20260510135003 | 77 | 108 | 1.0 | 4.0 | 0.00 | 0.06 | 0.06 | 57 | 1014.8 |
| 20260510134903 | 77 | 110 | 1.0 | 4.0 | 0.00 | 0.06 | 0.06 | 56 | 1014.8 |
| 20260510134803 | 77 | 109 | 1.0 | 5.0 | 0.00 | 0.06 | 0.06 | 56 | 1014.7 |
| 20260510134703 | 77 | 109 | 1.0 | 5.0 | 0.00 | 0.06 | 0.06 | 56 | 1014.8 |
| 20260510134603 | 77 | 109 | 1.0 | 5.0 | 0.00 | 0.06 | 0.06 | 55 | 1014.7 |
| 20260510134503 | 77 | 108 | 1.0 | 5.0 | 0.00 | 0.06 | 0.06 | 55 | 1014.9 |
| 20260510134403 | 77 | 109 | 1.0 | 5.0 | 0.00 | 0.06 | 0.06 | 55 | 1014.8 |
| 20260510134304 | 77 | 110 | 1.0 | 5.0 | 0.00 | 0.06 | 0.06 | 55 | 1014.8 |
| 20260510134203 | 77 | 110 | 1.0 | 5.0 | 0.00 | 0.06 | 0.06 | 55 | 1015.0 |
| 20260510134103 | 77 | 109 | 1.0 | 5.0 | 0.00 | 0.06 | 0.06 | 55 | 1014.9 |
| 20260510134003 | 77 | 109 | 1.0 | 5.0 | 0.00 | 0.06 | 0.06 | 55 | 1014.9 |
| 20260510133903 | 77 | 106 | 1.0 | 5.0 | 0.00 | 0.06 | 0.06 | 55 | 1014.8 |
| 20260510133803 | 78 | 105 | 0.0 | 4.0 | 0.00 | 0.06 | 0.06 | 55 | 1014.9 |
| 20260510133703 | 78 | 102 | 0.0 | 3.0 | 0.00 | 0.06 | 0.06 | 54 | 1015.0 |
| 20260510133603 | 78 | 102 | 0.0 | 3.0 | 0.00 | 0.06 | 0.06 | 54 | 1014.8 |
| 20260510133503 | 78 | 107 | 1.0 | 5.0 | 0.00 | 0.06 | 0.06 | 54 | 1014.8 |
| 20260510133403 | 78 | 108 | 0.0 | 5.0 | 0.00 | 0.06 | 0.06 | 54 | 1014.8 |
| 20260510133303 | 78 | 107 | 0.0 | 5.0 | 0.00 | 0.06 | 0.06 | 54 | 1014.8 |
| 20260510133203 | 78 | 105 | 0.0 | 5.0 | 0.00 | 0.06 | 0.06 | 54 | 1014.8 |
| 20260510133103 | 78 | 104 | 0.0 | 5.0 | 0.00 | 0.06 | 0.06 | 54 | 1014.8 |
| 20260510133003 | 78 | 100 | 0.0 | 5.0 | 0.00 | 0.06 | 0.06 | 54 | 1014.8 |
| 20260510132903 | 78 | 324 | 1.0 | 5.0 | 0.00 | 0.06 | 0.06 | 54 | 1014.7 |
| 20260510132803 | 78 | 292 | 1.0 | 5.0 | 0.00 | 0.06 | 0.06 | 54 | 1014.8 |
| 20260510132703 | 79 | 291 | 1.0 | 5.0 | 0.00 | 0.06 | 0.06 | 54 | 1014.8 |
| 20260510132603 | 79 | 291 | 1.0 | 5.0 | 0.00 | 0.06 | 0.06 | 54 | 1014.8 |
| 20260510132503 | 79 | 292 | 0.0 | 4.0 | 0.00 | 0.06 | 0.06 | 54 | 1014.8 |
| 20260510132404 | 79 | 292 | 0.0 | 4.0 | 0.00 | 0.06 | 0.06 | 54 | 1014.9 |
| 20260510132306 | 79 | 292 | 0.0 | 4.0 | 0.00 | 0.06 | 0.06 | 54 | 1014.9 |
| 20260510132204 | 79 | 292 | 0.0 | 4.0 | 0.00 | 0.06 | 0.06 | 53 | 1014.9 |
| 20260510132104 | 79 | 292 | 0.0 | 4.0 | 0.00 | 0.06 | 0.06 | 52 | 1014.9 |
| 20260510132004 | 79 | 292 | 0.0 | 4.0 | 0.00 | 0.06 | 0.06 | 50 | 1014.9 |
| 20260510131904 | 79 | 308 | 0.0 | 3.0 | 0.00 | 0.06 | 0.06 | 50 | 1014.8 |
| 20260510131804 | 79 | 300 | 0.0 | 4.0 | 0.00 | 0.06 | 0.06 | 50 | 1014.8 |
| 20260510131704 | 79 | 299 | 0.0 | 4.0 | 0.00 | 0.06 | 0.06 | 50 | 1014.9 |
| 20260510131604 | 79 | 298 | 0.0 | 4.0 | 0.00 | 0.06 | 0.06 | 50 | 1014.9 |
| 20260510131504 | 79 | 300 | 0.0 | 4.0 | 0.00 | 0.06 | 0.06 | 50 | 1014.9 |
| 20260510131404 | 79 | 300 | 0.0 | 4.0 | 0.00 | 0.06 | 0.06 | 50 | 1014.9 |
| 20260510131304 | 79 | 300 | 0.0 | 4.0 | 0.00 | 0.06 | 0.06 | 50 | 1014.9 |
| 20260510131204 | 79 | 300 | 0.0 | 4.0 | 0.00 | 0.06 | 0.06 | 50 | 1015.0 |
| 20260510131104 | 79 | 301 | 0.0 | 4.0 | 0.00 | 0.06 | 0.06 | 50 | 1015.0 |
| 20260510131004 | 79 | 303 | 0.0 | 4.0 | 0.00 | 0.06 | 0.06 | 50 | 1015.0 |
| 20260510130904 | 79 | 306 | 0.0 | 4.0 | 0.00 | 0.06 | 0.06 | 50 | 1015.0 |
| 20260510130804 | 79 | 101 | 0.0 | 1.0 | 0.00 | 0.06 | 0.06 | 50 | 1015.1 |
| 20260510130704 | 79 | 101 | 0.0 | 1.0 | 0.00 | 0.06 | 0.06 | 50 | 1015.1 |
| 20260510130604 | 79 | 93 | 0.0 | 1.0 | 0.00 | 0.06 | 0.06 | 51 | 1015.1 |
| 20260510130504 | 79 | 112 | 0.0 | 1.0 | 0.00 | 0.06 | 0.06 | 51 | 1015.1 |
| 20260510130404 | 79 | 112 | 0.0 | 1.0 | 0.00 | 0.06 | 0.06 | 51 | 1015.1 |
| 20260510130304 | 79 | 112 | 0.0 | 1.0 | 0.00 | 0.06 | 0.06 | 50 | 1015.1 |
| 20260510130204 | 79 | 107 | 0.0 | 3.0 | 0.00 | 0.06 | 0.06 | 51 | 1014.9 |
| 20260510130104 | 78 | 105 | 0.0 | 3.0 | 0.00 | 0.06 | 0.06 | 51 | 1015.0 |
| 20260510130004 | 78 | 104 | 0.0 | 3.0 | 0.00 | 0.06 | 0.06 | 51 | 1015.1 |
| 20260510125904 | 78 | 106 | 0.0 | 3.0 | 0.00 | 0.06 | 0.06 | 52 | 1015.1 |
| 20260510125804 | 78 | 107 | 0.0 | 3.0 | 0.00 | 0.06 | 0.06 | 52 | 1015.1 |
| 20260510125704 | 78 | 105 | 0.0 | 3.0 | 0.00 | 0.06 | 0.06 | 52 | 1015.1 |
| 20260510125604 | 78 | 104 | 0.0 | 3.0 | 0.00 | 0.06 | 0.06 | 52 | 1015.2 |
| 20260510125504 | 78 | 105 | 0.0 | 3.0 | 0.00 | 0.06 | 0.06 | 52 | 1015.1 |
| 20260510125404 | 78 | 105 | 0.0 | 3.0 | 0.00 | 0.06 | 0.06 | 52 | 1015.2 |
| 20260510125306 | 78 | 104 | 1.0 | 3.0 | 0.00 | 0.06 | 0.06 | 52 | 1015.2 |
| 20260510125204 | 78 | 103 | 0.0 | 3.0 | 0.00 | 0.06 | 0.06 | 52 | 1015.0 |
| 20260510125104 | 78 | 105 | 0.0 | 3.0 | 0.00 | 0.06 | 0.06 | 52 | 1015.0 |
| 20260510125004 | 78 | 105 | 0.0 | 3.0 | 0.00 | 0.06 | 0.06 | 52 | 1014.9 |
| 20260510124904 | 78 | 101 | 0.0 | 3.0 | 0.00 | 0.06 | 0.06 | 52 | 1015.0 |
| 20260510124804 | 78 | 97 | 0.0 | 3.0 | 0.00 | 0.06 | 0.06 | 52 | 1015.0 |
| 20260510124704 | 78 | 105 | 0.0 | 3.0 | 0.00 | 0.06 | 0.06 | 52 | 1015.1 |
| 20260510124604 | 78 | 108 | 0.0 | 3.0 | 0.00 | 0.06 | 0.06 | 52 | 1015.1 |
| 20260510124504 | 78 | 107 | 0.0 | 2.0 | 0.00 | 0.06 | 0.06 | 52 | 1015.1 |
| 20260510124404 | 78 | 107 | 0.0 | 2.0 | 0.00 | 0.06 | 0.06 | 52 | 1015.0 |
| 20260510124304 | 78 | 109 | 0.0 | 2.0 | 0.00 | 0.06 | 0.06 | 53 | 1015.0 |
| 20260510124204 | 78 | 100 | 0.0 | 2.0 | 0.00 | 0.06 | 0.06 | 53 | 1015.1 |
| 20260510124104 | 78 | 97 | 0.0 | 2.0 | 0.00 | 0.06 | 0.06 | 53 | 1015.1 |
| 20260510124004 | 78 | 100 | 0.0 | 2.0 | 0.00 | 0.06 | 0.06 | 53 | 1015.1 |
| 20260510123904 | 78 | 94 | 0.0 | 4.0 | 0.00 | 0.06 | 0.06 | 53 | 1015.1 |
| 20260510123804 | 78 | 100 | 0.0 | 5.0 | 0.00 | 0.06 | 0.06 | 53 | 1015.1 |
| 20260510123704 | 78 | 105 | 1.0 | 5.0 | 0.00 | 0.06 | 0.06 | 53 | 1015.1 |
| 20260510123604 | 78 | 105 | 1.0 | 5.0 | 0.00 | 0.06 | 0.06 | 53 | 1015.1 |
| 20260510123504 | 78 | 107 | 1.0 | 5.0 | 0.00 | 0.06 | 0.06 | 53 | 1015.1 |
| 20260510123404 | 78 | 106 | 1.0 | 5.0 | 0.00 | 0.06 | 0.06 | 53 | 1015.1 |
| 20260510123303 | 77 | 106 | 1.0 | 5.0 | 0.00 | 0.06 | 0.06 | 53 | 1015.1 |
| 20260510123204 | 78 | 109 | 1.0 | 5.0 | 0.00 | 0.06 | 0.06 | 53 | 1015.0 |
| 20260510123103 | 77 | 109 | 1.0 | 5.0 | 0.00 | 0.06 | 0.06 | 53 | 1015.0 |
| 20260510123004 | 77 | 108 | 1.0 | 5.0 | 0.00 | 0.06 | 0.06 | 53 | 1015.1 |
| 20260510122904 | 77 | 116 | 1.0 | 6.0 | 0.00 | 0.06 | 0.06 | 53 | 1015.1 |
| 20260510122804 | 77 | 122 | 1.0 | 6.0 | 0.00 | 0.06 | 0.06 | 53 | 1015.1 |
| 20260510122703 | 77 | 126 | 0.0 | 6.0 | 0.00 | 0.06 | 0.06 | 53 | 1015.1 |
| 20260510122603 | 77 | 130 | 0.0 | 6.0 | 0.00 | 0.06 | 0.06 | 53 | 1015.1 |
| 20260510122504 | 77 | 129 | 0.0 | 6.0 | 0.00 | 0.06 | 0.06 | 53 | 1015.1 |
| 20260510122403 | 77 | 139 | 0.0 | 6.0 | 0.00 | 0.06 | 0.06 | 53 | 1015.2 |
| 20260510122306 | 77 | 116 | 1.0 | 6.0 | 0.00 | 0.06 | 0.06 | 53 | 1015.2 |
| 20260510122203 | 77 | 118 | 0.0 | 6.0 | 0.00 | 0.06 | 0.06 | 53 | 1015.1 |
| 20260510122103 | 77 | 119 | 1.0 | 6.0 | 0.00 | 0.06 | 0.06 | 53 | 1015.2 |
| 20260510122003 | 77 | 117 | 1.0 | 6.0 | 0.00 | 0.06 | 0.06 | 53 | 1015.2 |
| 20260510121904 | 77 | 113 | 1.0 | 5.0 | 0.00 | 0.06 | 0.06 | 53 | 1015.2 |
| 20260510121803 | 77 | 112 | 1.0 | 5.0 | 0.00 | 0.06 | 0.06 | 53 | 1015.1 |
| 20260510121703 | 77 | 113 | 1.0 | 5.0 | 0.00 | 0.06 | 0.06 | 53 | 1015.2 |
| 20260510121603 | 77 | 113 | 1.0 | 5.0 | 0.00 | 0.06 | 0.06 | 53 | 1015.2 |
| 20260510121503 | 77 | 112 | 1.0 | 5.0 | 0.00 | 0.06 | 0.06 | 53 | 1015.2 |
| 20260510121403 | 77 | 112 | 1.0 | 5.0 | 0.00 | 0.06 | 0.06 | 52 | 1015.2 |
| 20260510121303 | 77 | 111 | 1.0 | 5.0 | 0.00 | 0.06 | 0.06 | 52 | 1015.2 |
| 20260510121203 | 77 | 113 | 1.0 | 4.0 | 0.00 | 0.06 | 0.06 | 52 | 1015.2 |
| 20260510121103 | 77 | 112 | 1.0 | 4.0 | 0.00 | 0.06 | 0.06 | 52 | 1015.2 |
| 20260510121003 | 77 | 112 | 1.0 | 4.0 | 0.00 | 0.06 | 0.06 | 52 | 1015.3 |
| 20260510120903 | 77 | 111 | 0.0 | 3.0 | 0.00 | 0.06 | 0.06 | 52 | 1015.2 |
| 20260510120803 | 77 | 113 | 0.0 | 3.0 | 0.00 | 0.06 | 0.06 | 52 | 1015.2 |
| 20260510120703 | 77 | 111 | 0.0 | 3.0 | 0.00 | 0.06 | 0.06 | 52 | 1015.3 |
| 20260510120603 | 77 | 111 | 0.0 | 3.0 | 0.00 | 0.06 | 0.06 | 52 | 1015.3 |
| 20260510120503 | 77 | 111 | 0.0 | 3.0 | 0.00 | 0.06 | 0.06 | 53 | 1015.3 |
| 20260510120403 | 77 | 113 | 0.0 | 4.0 | 0.00 | 0.06 | 0.06 | 52 | 1015.3 |
| 20260510120303 | 76 | 115 | 0.0 | 4.0 | 0.00 | 0.06 | 0.06 | 53 | 1015.2 |
| 20260510120203 | 77 | 115 | 0.0 | 4.0 | 0.00 | 0.06 | 0.06 | 53 | 1015.2 |
| 20260510120103 | 77 | 114 | 0.0 | 4.0 | 0.00 | 0.06 | 0.06 | 53 | 1015.2 |
| 20260510120004 | 76 | 114 | 0.0 | 4.0 | 0.00 | 0.06 | 0.06 | 53 | 1015.1 |
| 20260510115903 | 76 | 114 | 0.0 | 4.0 | 0.00 | 0.06 | 0.06 | 53 | 1015.2 |
| 20260510115803 | 76 | 110 | 0.0 | 4.0 | 0.00 | 0.06 | 0.06 | 53 | 1015.2 |
| 20260510115703 | 76 | 114 | 0.0 | 4.0 | 0.00 | 0.06 | 0.06 | 53 | 1015.2 |
| 20260510115603 | 76 | 111 | 0.0 | 4.0 | 0.00 | 0.06 | 0.06 | 53 | 1015.2 |
| 20260510115504 | 76 | 111 | 0.0 | 4.0 | 0.00 | 0.06 | 0.06 | 53 | 1015.1 |
| 20260510115403 | 76 | 108 | 0.0 | 4.0 | 0.00 | 0.06 | 0.06 | 53 | 1015.1 |
| 20260510115306 | 76 | 109 | 0.0 | 4.0 | 0.00 | 0.06 | 0.06 | 53 | 1015.2 |
| 20260510115203 | 76 | 109 | 0.0 | 4.0 | 0.00 | 0.06 | 0.06 | 53 | 1015.1 |
| 20260510115103 | 76 | 110 | 0.0 | 6.0 | 0.00 | 0.06 | 0.06 | 53 | 1015.2 |
| 20260510115003 | 76 | 110 | 0.0 | 6.0 | 0.00 | 0.06 | 0.06 | 53 | 1015.2 |
| 20260510114903 | 76 | 110 | 0.0 | 6.0 | 0.00 | 0.06 | 0.06 | 53 | 1015.3 |
| 20260510114803 | 76 | 110 | 0.0 | 6.0 | 0.00 | 0.06 | 0.06 | 53 | 1015.2 |
| 20260510114703 | 76 | 107 | 0.0 | 6.0 | 0.00 | 0.06 | 0.06 | 53 | 1015.3 |
| 20260510114603 | 76 | 110 | 0.0 | 6.0 | 0.00 | 0.06 | 0.06 | 53 | 1015.3 |
| 20260510114503 | 76 | 108 | 0.0 | 6.0 | 0.00 | 0.06 | 0.06 | 53 | 1015.2 |
| 20260510114403 | 76 | 109 | 0.0 | 6.0 | 0.00 | 0.06 | 0.06 | 53 | 1015.3 |
| 20260510114303 | 76 | 112 | 0.0 | 6.0 | 0.00 | 0.06 | 0.06 | 53 | 1015.2 |
| 20260510114203 | 76 | 114 | 0.0 | 6.0 | 0.00 | 0.06 | 0.06 | 53 | 1015.1 |
| 20260510114103 | 76 | 115 | 0.0 | 3.0 | 0.00 | 0.06 | 0.06 | 53 | 1015.2 |
| 20260510114003 | 76 | 114 | 0.0 | 3.0 | 0.00 | 0.06 | 0.06 | 53 | 1015.2 |
| 20260510113903 | 76 | 114 | 0.0 | 3.0 | 0.00 | 0.06 | 0.06 | 53 | 1015.2 |
| 20260510113803 | 76 | 116 | 0.0 | 3.0 | 0.00 | 0.06 | 0.06 | 53 | 1015.2 |
| 20260510113703 | 76 | 120 | 0.0 | 3.0 | 0.00 | 0.06 | 0.06 | 53 | 1015.1 |
| 20260510113603 | 76 | 120 | 0.0 | 3.0 | 0.00 | 0.06 | 0.06 | 53 | 1015.1 |
| 20260510113503 | 76 | 128 | 0.0 | 3.0 | 0.00 | 0.06 | 0.06 | 53 | 1015.2 |
| 20260510113403 | 76 | 127 | 0.0 | 3.0 | 0.00 | 0.06 | 0.06 | 53 | 1015.2 |
| 20260510113303 | 76 | 124 | 0.0 | 3.0 | 0.00 | 0.06 | 0.06 | 53 | 1015.2 |
| 20260510113203 | 76 | 118 | 0.0 | 3.0 | 0.00 | 0.06 | 0.06 | 53 | 1015.1 |
| 20260510113103 | 76 | 117 | 0.0 | 3.0 | 0.00 | 0.06 | 0.06 | 54 | 1015.2 |
| 20260510113003 | 76 | 116 | 0.0 | 3.0 | 0.00 | 0.06 | 0.06 | 54 | 1015.2 |
| 20260510112903 | 76 | 108 | 0.0 | 3.0 | 0.00 | 0.06 | 0.06 | 53 | 1015.3 |
| 20260510112803 | 76 | 105 | 0.0 | 3.0 | 0.00 | 0.06 | 0.06 | 54 | 1015.4 |
| 20260510112703 | 76 | 88 | 0.0 | 3.0 | 0.00 | 0.06 | 0.06 | 53 | 1015.2 |
| 20260510112603 | 76 | 90 | 0.0 | 4.0 | 0.00 | 0.06 | 0.06 | 53 | 1015.2 |
| 20260510112503 | 76 | 100 | 1.0 | 4.0 | 0.00 | 0.06 | 0.06 | 53 | 1015.3 |
| 20260510112403 | 76 | 100 | 1.0 | 4.0 | 0.00 | 0.06 | 0.06 | 53 | 1015.2 |
| 20260510112305 | 76 | 99 | 1.0 | 4.0 | 0.00 | 0.06 | 0.06 | 53 | 1015.3 |
| 20260510112203 | 76 | 95 | 1.0 | 4.0 | 0.00 | 0.06 | 0.06 | 53 | 1015.2 |
| 20260510112103 | 76 | 96 | 1.0 | 4.0 | 0.00 | 0.06 | 0.06 | 53 | 1015.3 |
| 20260510112003 | 76 | 101 | 1.0 | 4.0 | 0.00 | 0.06 | 0.06 | 53 | 1015.3 |
| 20260510111903 | 76 | 104 | 1.0 | 4.0 | 0.00 | 0.06 | 0.06 | 53 | 1015.3 |
| 20260510111803 | 76 | 104 | 1.0 | 4.0 | 0.00 | 0.06 | 0.06 | 53 | 1015.3 |
| 20260510111703 | 76 | 104 | 1.0 | 4.0 | 0.00 | 0.06 | 0.06 | 53 | 1015.4 |
| 20260510111603 | 76 | 105 | 1.0 | 4.0 | 0.00 | 0.06 | 0.06 | 53 | 1015.3 |
| 20260510111503 | 76 | 101 | 1.0 | 4.0 | 0.00 | 0.06 | 0.06 | 53 | 1015.3 |
| 20260510111403 | 76 | 101 | 1.0 | 4.0 | 0.00 | 0.06 | 0.06 | 53 | 1015.3 |
| 20260510111303 | 76 | 104 | 1.0 | 5.0 | 0.00 | 0.06 | 0.06 | 53 | 1015.3 |
| 20260510111203 | 76 | 110 | 1.0 | 5.0 | 0.00 | 0.06 | 0.06 | 53 | 1015.4 |
| 20260510111103 | 76 | 110 | 1.0 | 5.0 | 0.00 | 0.06 | 0.06 | 52 | 1015.4 |
| 20260510111003 | 76 | 109 | 1.0 | 5.0 | 0.00 | 0.06 | 0.06 | 52 | 1015.3 |
| 20260510110903 | 76 | 110 | 1.0 | 5.0 | 0.00 | 0.06 | 0.06 | 52 | 1015.3 |
| 20260510110803 | 76 | 109 | 1.0 | 5.0 | 0.00 | 0.06 | 0.06 | 52 | 1015.3 |
| 20260510110703 | 76 | 112 | 1.0 | 5.0 | 0.00 | 0.06 | 0.06 | 52 | 1015.3 |
| 20260510110603 | 76 | 112 | 1.0 | 5.0 | 0.00 | 0.06 | 0.06 | 52 | 1015.3 |
| 20260510110503 | 76 | 112 | 1.0 | 5.0 | 0.00 | 0.06 | 0.06 | 52 | 1015.4 |
| 20260510110403 | 76 | 110 | 1.0 | 5.0 | 0.00 | 0.06 | 0.06 | 51 | 1015.4 |
| 20260510110303 | 76 | 109 | 1.0 | 5.0 | 0.00 | 0.06 | 0.06 | 51 | 1015.5 |
| 20260510110203 | 76 | 105 | 1.0 | 5.0 | 0.00 | 0.06 | 0.06 | 51 | 1015.5 |
| 20260510110003 | 76 | 110 | 1.0 | 5.0 | 0.00 | 0.06 | 0.06 | 51 | 1015.5 |
| 20260510105903 | 76 | 109 | 1.0 | 5.0 | 0.00 | 0.06 | 0.06 | 51 | 1015.5 |
| 20260510105803 | 76 | 109 | 1.0 | 5.0 | 0.00 | 0.06 | 0.06 | 51 | 1015.5 |
| 20260510105703 | 76 | 109 | 1.0 | 5.0 | 0.00 | 0.06 | 0.06 | 51 | 1015.5 |
| 20260510105603 | 76 | 110 | 1.0 | 4.0 | 0.00 | 0.06 | 0.06 | 51 | 1015.4 |
| 20260510105503 | 76 | 111 | 1.0 | 4.0 | 0.00 | 0.06 | 0.06 | 52 | 1015.5 |
| 20260510105403 | 76 | 112 | 1.0 | 5.0 | 0.00 | 0.06 | 0.06 | 51 | 1015.6 |
| 20260510105306 | 76 | 112 | 1.0 | 5.0 | 0.00 | 0.06 | 0.06 | 51 | 1015.5 |
| 20260510105203 | 76 | 112 | 1.0 | 5.0 | 0.00 | 0.06 | 0.06 | 51 | 1015.5 |
| 20260510105103 | 76 | 110 | 1.0 | 5.0 | 0.00 | 0.06 | 0.06 | 51 | 1015.5 |
| 20260510105003 | 76 | 109 | 1.0 | 5.0 | 0.00 | 0.06 | 0.06 | 51 | 1015.5 |
| 20260510104904 | 76 | 109 | 1.0 | 5.0 | 0.00 | 0.06 | 0.06 | 51 | 1015.7 |
| 20260510104804 | 76 | 111 | 1.0 | 5.0 | 0.00 | 0.06 | 0.06 | 51 | 1015.5 |
| 20260510104704 | 76 | 104 | 1.0 | 6.0 | 0.00 | 0.06 | 0.06 | 51 | 1015.5 |
| 20260510104604 | 76 | 104 | 1.0 | 6.0 | 0.00 | 0.06 | 0.06 | 51 | 1015.5 |
| 20260510104504 | 75 | 102 | 1.0 | 6.0 | 0.00 | 0.06 | 0.06 | 52 | 1015.6 |
| 20260510104404 | 75 | 99 | 0.0 | 6.0 | 0.00 | 0.06 | 0.06 | 52 | 1015.5 |
| 20260510104304 | 75 | 98 | 0.0 | 6.0 | 0.00 | 0.06 | 0.06 | 52 | 1015.5 |
| 20260510104204 | 75 | 98 | 0.0 | 6.0 | 0.00 | 0.06 | 0.06 | 52 | 1015.5 |
| 20260510104104 | 75 | 102 | 1.0 | 6.0 | 0.00 | 0.06 | 0.06 | 52 | 1015.5 |
| 20260510104004 | 75 | 105 | 1.0 | 8.0 | 0.00 | 0.06 | 0.06 | 52 | 1015.4 |
| 20260510103904 | 75 | 105 | 1.0 | 8.0 | 0.00 | 0.06 | 0.06 | 52 | 1015.4 |
| 20260510103804 | 75 | 107 | 1.0 | 8.0 | 0.00 | 0.06 | 0.06 | 52 | 1015.3 |
| 20260510103704 | 75 | 108 | 1.0 | 8.0 | 0.00 | 0.06 | 0.06 | 52 | 1015.3 |
| 20260510103604 | 75 | 109 | 1.0 | 8.0 | 0.00 | 0.06 | 0.06 | 52 | 1015.3 |
| 20260510103504 | 75 | 109 | 1.0 | 8.0 | 0.00 | 0.06 | 0.06 | 53 | 1015.2 |
| 20260510103404 | 75 | 109 | 1.0 | 8.0 | 0.00 | 0.06 | 0.06 | 52 | 1015.2 |
| 20260510103304 | 75 | 109 | 1.0 | 8.0 | 0.00 | 0.06 | 0.06 | 52 | 1015.1 |
| 20260510103204 | 75 | 109 | 1.0 | 8.0 | 0.00 | 0.06 | 0.06 | 52 | 1015.1 |
| 20260510103104 | 75 | 108 | 1.0 | 8.0 | 0.00 | 0.06 | 0.06 | 52 | 1015.1 |
| 20260510103004 | 75 | 107 | 1.0 | 5.0 | 0.00 | 0.06 | 0.06 | 52 | 1015.2 |
| 20260510102904 | 75 | 107 | 1.0 | 5.0 | 0.00 | 0.06 | 0.06 | 52 | 1015.2 |
| 20260510102804 | 75 | 105 | 1.0 | 5.0 | 0.00 | 0.06 | 0.06 | 52 | 1015.1 |
| 20260510102704 | 75 | 108 | 1.0 | 5.0 | 0.00 | 0.06 | 0.06 | 52 | 1015.2 |
| 20260510102604 | 75 | 107 | 1.0 | 6.0 | 0.00 | 0.06 | 0.06 | 52 | 1015.2 |
| 20260510102504 | 75 | 108 | 1.0 | 6.0 | 0.00 | 0.06 | 0.06 | 52 | 1015.2 |
| 20260510102404 | 75 | 110 | 1.0 | 6.0 | 0.00 | 0.06 | 0.06 | 52 | 1015.1 |
| 20260510102306 | 75 | 110 | 1.0 | 6.0 | 0.00 | 0.06 | 0.06 | 52 | 1015.2 |
| 20260510102204 | 75 | 111 | 1.0 | 6.0 | 0.00 | 0.06 | 0.06 | 53 | 1015.2 |
| 20260510102104 | 75 | 111 | 1.0 | 6.0 | 0.00 | 0.06 | 0.06 | 53 | 1015.2 |
| 20260510102004 | 75 | 109 | 1.0 | 6.0 | 0.00 | 0.06 | 0.06 | 53 | 1015.2 |
| 20260510101904 | 75 | 110 | 1.0 | 6.0 | 0.00 | 0.06 | 0.06 | 53 | 1015.2 |
| 20260510101804 | 75 | 105 | 1.0 | 6.0 | 0.00 | 0.06 | 0.06 | 53 | 1015.3 |
| 20260510101704 | 75 | 104 | 2.0 | 9.0 | 0.00 | 0.06 | 0.06 | 53 | 1015.2 |
| 20260510101604 | 75 | 104 | 1.0 | 9.0 | 0.00 | 0.06 | 0.06 | 53 | 1015.2 |
| 20260510101504 | 75 | 103 | 1.0 | 9.0 | 0.00 | 0.06 | 0.06 | 53 | 1015.2 |
| 20260510101404 | 75 | 100 | 1.0 | 9.0 | 0.00 | 0.06 | 0.06 | 53 | 1015.2 |
| 20260510101304 | 75 | 103 | 1.0 | 9.0 | 0.00 | 0.06 | 0.06 | 54 | 1015.2 |
| 20260510101204 | 75 | 103 | 1.0 | 9.0 | 0.00 | 0.06 | 0.06 | 54 | 1015.2 |
| 20260510101104 | 75 | 102 | 1.0 | 9.0 | 0.00 | 0.06 | 0.06 | 54 | 1015.2 |
| 20260510101004 | 75 | 105 | 2.0 | 9.0 | 0.00 | 0.06 | 0.06 | 54 | 1015.2 |
| 20260510100904 | 74 | 103 | 2.0 | 9.0 | 0.00 | 0.06 | 0.06 | 54 | 1015.3 |
| 20260510100804 | 75 | 108 | 2.0 | 9.0 | 0.00 | 0.06 | 0.06 | 54 | 1015.2 |
| 20260510100704 | 75 | 110 | 1.0 | 5.0 | 0.00 | 0.06 | 0.06 | 54 | 1015.2 |
| 20260510100603 | 75 | 110 | 1.0 | 5.0 | 0.00 | 0.06 | 0.06 | 54 | 1015.2 |
| 20260510100504 | 75 | 110 | 1.0 | 5.0 | 0.00 | 0.06 | 0.06 | 53 | 1015.2 |
| 20260510100404 | 75 | 111 | 1.0 | 5.0 | 0.00 | 0.06 | 0.06 | 53 | 1015.1 |
| 20260510100304 | 75 | 108 | 1.0 | 5.0 | 0.00 | 0.06 | 0.06 | 53 | 1015.1 |
| 20260510100204 | 75 | 108 | 1.0 | 5.0 | 0.00 | 0.06 | 0.06 | 53 | 1015.2 |
| 20260510100004 | 75 | 109 | 1.0 | 5.0 | 0.00 | 0.06 | 0.06 | 53 | 1015.1 |
| 20260510095903 | 75 | 110 | 1.0 | 5.0 | 0.00 | 0.06 | 0.06 | 53 | 1015.2 |
| 20260510095803 | 74 | 111 | 1.0 | 5.0 | 0.00 | 0.06 | 0.06 | 53 | 1015.3 |
| 20260510095703 | 74 | 111 | 1.0 | 5.0 | 0.00 | 0.06 | 0.06 | 53 | 1015.2 |
| 20260510095603 | 74 | 111 | 1.0 | 5.0 | 0.00 | 0.06 | 0.06 | 53 | 1015.2 |
| 20260510095503 | 74 | 111 | 1.0 | 6.0 | 0.00 | 0.06 | 0.06 | 53 | 1015.3 |
| 20260510095404 | 74 | 112 | 1.0 | 6.0 | 0.00 | 0.06 | 0.06 | 53 | 1015.2 |
| 20260510095305 | 74 | 112 | 2.0 | 6.0 | 0.00 | 0.06 | 0.06 | 53 | 1015.3 |
| 20260510095203 | 74 | 112 | 1.0 | 6.0 | 0.00 | 0.06 | 0.06 | 53 | 1015.3 |
| 20260510095103 | 74 | 112 | 1.0 | 6.0 | 0.00 | 0.06 | 0.06 | 53 | 1015.3 |
| 20260510095003 | 74 | 112 | 1.0 | 6.0 | 0.00 | 0.06 | 0.06 | 53 | 1015.2 |
| 20260510094903 | 74 | 112 | 1.0 | 6.0 | 0.00 | 0.06 | 0.06 | 53 | 1015.2 |
| 20260510094803 | 74 | 111 | 1.0 | 6.0 | 0.00 | 0.06 | 0.06 | 53 | 1015.3 |
| 20260510094703 | 74 | 111 | 1.0 | 6.0 | 0.00 | 0.06 | 0.06 | 53 | 1015.2 |
| 20260510094603 | 74 | 111 | 1.0 | 6.0 | 0.00 | 0.06 | 0.06 | 53 | 1015.2 |
| 20260510094503 | 74 | 111 | 1.0 | 6.0 | 0.00 | 0.06 | 0.06 | 54 | 1015.3 |
| 20260510094403 | 74 | 109 | 1.0 | 5.0 | 0.00 | 0.06 | 0.06 | 54 | 1015.2 |
| 20260510094303 | 74 | 105 | 1.0 | 5.0 | 0.00 | 0.06 | 0.06 | 54 | 1015.2 |
| 20260510094203 | 74 | 107 | 1.0 | 5.0 | 0.00 | 0.06 | 0.06 | 54 | 1015.2 |
| 20260510094103 | 74 | 108 | 1.0 | 5.0 | 0.00 | 0.06 | 0.06 | 55 | 1015.2 |
| 20260510094003 | 74 | 108 | 1.0 | 5.0 | 0.00 | 0.06 | 0.06 | 55 | 1015.2 |
| 20260510093903 | 74 | 107 | 1.0 | 5.0 | 0.00 | 0.06 | 0.06 | 55 | 1015.1 |
| 20260510093803 | 74 | 108 | 1.0 | 6.0 | 0.00 | 0.06 | 0.06 | 55 | 1015.3 |
| 20260510093703 | 74 | 108 | 2.0 | 6.0 | 0.00 | 0.06 | 0.06 | 55 | 1015.3 |
| 20260510093603 | 74 | 108 | 2.0 | 6.0 | 0.00 | 0.06 | 0.06 | 55 | 1015.3 |
| 20260510093503 | 74 | 110 | 2.0 | 6.0 | 0.00 | 0.06 | 0.06 | 55 | 1015.2 |
| 20260510093403 | 74 | 108 | 2.0 | 6.0 | 0.00 | 0.06 | 0.06 | 55 | 1015.3 |
| 20260510093303 | 74 | 110 | 2.0 | 6.0 | 0.00 | 0.06 | 0.06 | 55 | 1015.3 |
| 20260510093203 | 74 | 109 | 2.0 | 6.0 | 0.00 | 0.06 | 0.06 | 55 | 1015.2 |
| 20260510093103 | 74 | 108 | 2.0 | 6.0 | 0.00 | 0.06 | 0.06 | 55 | 1015.2 |
| 20260510093003 | 74 | 110 | 2.0 | 6.0 | 0.00 | 0.06 | 0.06 | 55 | 1015.2 |
| 20260510092903 | 74 | 111 | 2.0 | 6.0 | 0.00 | 0.06 | 0.06 | 55 | 1015.2 |
| 20260510092803 | 74 | 112 | 2.0 | 6.0 | 0.00 | 0.06 | 0.06 | 55 | 1015.2 |
| 20260510092703 | 74 | 112 | 2.0 | 6.0 | 0.00 | 0.06 | 0.06 | 55 | 1015.2 |
| 20260510092603 | 74 | 112 | 2.0 | 6.0 | 0.00 | 0.06 | 0.06 | 55 | 1015.2 |
| 20260510092503 | 74 | 110 | 2.0 | 6.0 | 0.00 | 0.06 | 0.06 | 55 | 1015.1 |
| 20260510092403 | 74 | 113 | 1.0 | 6.0 | 0.00 | 0.06 | 0.06 | 55 | 1015.2 |
| 20260510092306 | 74 | 115 | 1.0 | 4.0 | 0.00 | 0.06 | 0.06 | 56 | 1015.2 |
| 20260510092203 | 74 | 116 | 1.0 | 4.0 | 0.00 | 0.06 | 0.06 | 56 | 1015.1 |
| 20260510092103 | 74 | 117 | 1.0 | 4.0 | 0.00 | 0.06 | 0.06 | 57 | 1015.1 |
| 20260510092003 | 74 | 117 | 1.0 | 4.0 | 0.00 | 0.06 | 0.06 | 57 | 1015.2 |
| 20260510091903 | 74 | 116 | 1.0 | 4.0 | 0.00 | 0.06 | 0.06 | 57 | 1015.3 |
| 20260510091803 | 74 | 114 | 1.0 | 7.0 | 0.00 | 0.06 | 0.06 | 57 | 1015.3 |
| 20260510091703 | 74 | 115 | 2.0 | 7.0 | 0.00 | 0.06 | 0.06 | 57 | 1015.2 |
| 20260510091603 | 74 | 115 | 2.0 | 7.0 | 0.00 | 0.06 | 0.06 | 57 | 1015.2 |
| 20260510091503 | 74 | 117 | 2.0 | 7.0 | 0.00 | 0.06 | 0.06 | 57 | 1015.2 |
| 20260510091403 | 74 | 116 | 2.0 | 7.0 | 0.00 | 0.06 | 0.06 | 57 | 1015.1 |
| 20260510091303 | 74 | 115 | 2.0 | 7.0 | 0.00 | 0.06 | 0.06 | 57 | 1015.1 |
| 20260510091203 | 74 | 114 | 2.0 | 7.0 | 0.00 | 0.06 | 0.06 | 57 | 1015.1 |
| 20260510091103 | 74 | 114 | 2.0 | 7.0 | 0.00 | 0.06 | 0.06 | 57 | 1015.1 |
| 20260510091003 | 74 | 113 | 2.0 | 7.0 | 0.00 | 0.06 | 0.06 | 57 | 1015.2 |
| 20260510090903 | 74 | 113 | 2.0 | 7.0 | 0.00 | 0.06 | 0.06 | 57 | 1015.1 |
| 20260510090803 | 74 | 113 | 2.0 | 7.0 | 0.00 | 0.06 | 0.06 | 58 | 1015.2 |
| 20260510090703 | 74 | 112 | 2.0 | 6.0 | 0.00 | 0.06 | 0.06 | 58 | 1015.1 |
| 20260510090603 | 74 | 112 | 2.0 | 6.0 | 0.00 | 0.06 | 0.06 | 57 | 1015.2 |
| 20260510090503 | 74 | 112 | 2.0 | 6.0 | 0.00 | 0.06 | 0.06 | 57 | 1015.2 |
| 20260510090403 | 74 | 110 | 2.0 | 6.0 | 0.00 | 0.06 | 0.06 | 58 | 1015.0 |
| 20260510090303 | 74 | 109 | 2.0 | 6.0 | 0.00 | 0.06 | 0.06 | 58 | 1015.0 |
| 20260510090203 | 74 | 108 | 2.0 | 6.0 | 0.00 | 0.06 | 0.06 | 58 | 1015.1 |
| 20260510090003 | 74 | 106 | 2.0 | 6.0 | 0.00 | 0.06 | 0.06 | 58 | 1015.0 |
| 20260510085903 | 74 | 105 | 2.0 | 6.0 | 0.00 | 0.06 | 0.06 | 58 | 1014.9 |
| 20260510085803 | 74 | 103 | 2.0 | 6.0 | 0.00 | 0.06 | 0.06 | 59 | 1015.0 |
| 20260510085703 | 74 | 99 | 2.0 | 6.0 | 0.00 | 0.06 | 0.06 | 59 | 1014.9 |
| 20260510085603 | 74 | 99 | 3.0 | 6.0 | 0.00 | 0.06 | 0.06 | 59 | 1014.9 |
| 20260510085503 | 74 | 99 | 3.0 | 6.0 | 0.00 | 0.06 | 0.06 | 59 | 1015.0 |
| 20260510085403 | 74 | 102 | 3.0 | 7.0 | 0.00 | 0.06 | 0.06 | 59 | 1014.9 |
| 20260510085306 | 74 | 102 | 3.0 | 7.0 | 0.00 | 0.06 | 0.06 | 59 | 1015.0 |
| 20260510085203 | 74 | 102 | 3.0 | 7.0 | 0.00 | 0.06 | 0.06 | 59 | 1015.0 |
| 20260510085103 | 74 | 102 | 3.0 | 7.0 | 0.00 | 0.06 | 0.06 | 58 | 1014.9 |
| 20260510085003 | 74 | 103 | 3.0 | 8.0 | 0.00 | 0.06 | 0.06 | 59 | 1014.9 |
| 20260510084903 | 74 | 103 | 3.0 | 8.0 | 0.00 | 0.06 | 0.06 | 59 | 1014.7 |
| 20260510084803 | 74 | 104 | 3.0 | 8.0 | 0.00 | 0.06 | 0.06 | 59 | 1014.7 |
| 20260510084703 | 74 | 109 | 3.0 | 8.0 | 0.00 | 0.06 | 0.06 | 59 | 1014.8 |
| 20260510084603 | 74 | 111 | 3.0 | 8.0 | 0.00 | 0.06 | 0.06 | 59 | 1014.8 |
| 20260510084503 | 74 | 111 | 3.0 | 8.0 | 0.00 | 0.06 | 0.06 | 59 | 1014.7 |
| 20260510084403 | 74 | 109 | 3.0 | 8.0 | 0.00 | 0.06 | 0.06 | 59 | 1014.8 |
| 20260510084303 | 74 | 108 | 4.0 | 8.0 | 0.00 | 0.06 | 0.06 | 60 | 1014.6 |
| 20260510084203 | 74 | 109 | 3.0 | 8.0 | 0.00 | 0.06 | 0.06 | 59 | 1014.6 |
| 20260510084103 | 74 | 109 | 4.0 | 8.0 | 0.00 | 0.06 | 0.06 | 59 | 1014.6 |
| 20260510084003 | 74 | 108 | 3.0 | 8.0 | 0.00 | 0.06 | 0.06 | 60 | 1014.6 |
| 20260510083903 | 74 | 111 | 3.0 | 8.0 | 0.00 | 0.06 | 0.06 | 60 | 1014.5 |
| 20260510083803 | 74 | 112 | 2.0 | 8.0 | 0.00 | 0.06 | 0.06 | 60 | 1014.6 |
| 20260510083703 | 74 | 109 | 2.0 | 8.0 | 0.00 | 0.06 | 0.06 | 59 | 1014.6 |
| 20260510083603 | 74 | 107 | 2.0 | 7.0 | 0.00 | 0.06 | 0.06 | 59 | 1014.5 |
| 20260510083503 | 75 | 105 | 2.0 | 7.0 | 0.00 | 0.06 | 0.06 | 59 | 1014.5 |
| 20260510083403 | 75 | 105 | 2.0 | 6.0 | 0.00 | 0.06 | 0.06 | 59 | 1014.6 |
| 20260510083303 | 75 | 107 | 1.0 | 6.0 | 0.00 | 0.06 | 0.06 | 60 | 1014.7 |
| 20260510083203 | 75 | 105 | 1.0 | 6.0 | 0.00 | 0.06 | 0.06 | 60 | 1014.7 |
| 20260510083103 | 75 | 106 | 1.0 | 6.0 | 0.00 | 0.06 | 0.06 | 60 | 1014.6 |
| 20260510083003 | 75 | 108 | 1.0 | 6.0 | 0.00 | 0.06 | 0.06 | 60 | 1014.6 |
| 20260510082903 | 75 | 105 | 2.0 | 5.0 | 0.00 | 0.06 | 0.06 | 60 | 1014.6 |
| 20260510082803 | 75 | 106 | 2.0 | 5.0 | 0.00 | 0.06 | 0.06 | 60 | 1014.8 |
| 20260510082703 | 75 | 107 | 1.0 | 5.0 | 0.00 | 0.06 | 0.06 | 60 | 1014.7 |
| 20260510082603 | 75 | 108 | 1.0 | 5.0 | 0.00 | 0.06 | 0.06 | 60 | 1014.8 |
| 20260510082503 | 75 | 111 | 1.0 | 5.0 | 0.00 | 0.06 | 0.06 | 60 | 1014.8 |
| 20260510082403 | 75 | 111 | 1.0 | 5.0 | 0.00 | 0.06 | 0.06 | 60 | 1014.8 |
| 20260510082306 | 75 | 110 | 2.0 | 5.0 | 0.00 | 0.06 | 0.06 | 60 | 1014.7 |
| 20260510082203 | 75 | 113 | 2.0 | 6.0 | 0.00 | 0.06 | 0.06 | 60 | 1014.7 |
| 20260510082103 | 75 | 115 | 2.0 | 6.0 | 0.00 | 0.06 | 0.06 | 60 | 1014.7 |
| 20260510082003 | 75 | 114 | 2.0 | 6.0 | 0.00 | 0.06 | 0.06 | 61 | 1014.7 |
| 20260510081903 | 75 | 114 | 1.0 | 6.0 | 0.00 | 0.06 | 0.06 | 61 | 1014.7 |
| 20260510081803 | 75 | 113 | 1.0 | 6.0 | 0.00 | 0.06 | 0.06 | 61 | 1014.8 |
| 20260510081703 | 75 | 112 | 1.0 | 6.0 | 0.00 | 0.06 | 0.06 | 61 | 1014.8 |
| 20260510081603 | 75 | 113 | 1.0 | 6.0 | 0.00 | 0.06 | 0.06 | 61 | 1014.8 |
| 20260510081503 | 75 | 112 | 1.0 | 6.0 | 0.00 | 0.06 | 0.06 | 61 | 1014.7 |
| 20260510081403 | 75 | 112 | 1.0 | 6.0 | 0.00 | 0.06 | 0.06 | 61 | 1014.7 |
| 20260510081303 | 75 | 116 | 1.0 | 6.0 | 0.00 | 0.06 | 0.06 | 62 | 1014.6 |
| 20260510081203 | 75 | 110 | 1.0 | 5.0 | 0.00 | 0.06 | 0.06 | 62 | 1014.6 |
| 20260510081103 | 75 | 107 | 1.0 | 5.0 | 0.00 | 0.06 | 0.06 | 62 | 1014.7 |
| 20260510081003 | 75 | 107 | 1.0 | 5.0 | 0.00 | 0.06 | 0.06 | 62 | 1014.7 |
| 20260510080903 | 75 | 107 | 1.0 | 5.0 | 0.00 | 0.06 | 0.06 | 62 | 1014.6 |
| 20260510080803 | 75 | 107 | 1.0 | 5.0 | 0.00 | 0.06 | 0.06 | 62 | 1014.5 |
| 20260510080704 | 75 | 107 | 1.0 | 5.0 | 0.00 | 0.06 | 0.06 | 62 | 1014.6 |
| 20260510080604 | 75 | 108 | 1.0 | 7.0 | 0.00 | 0.06 | 0.06 | 61 | 1014.5 |
| 20260510080504 | 75 | 105 | 1.0 | 7.0 | 0.00 | 0.06 | 0.06 | 62 | 1014.5 |
| 20260510080404 | 75 | 107 | 1.0 | 7.0 | 0.00 | 0.06 | 0.06 | 62 | 1014.5 |
| 20260510080304 | 75 | 102 | 1.0 | 7.0 | 0.00 | 0.06 | 0.06 | 63 | 1014.5 |
| 20260510080204 | 75 | 104 | 1.0 | 7.0 | 0.00 | 0.06 | 0.06 | 63 | 1014.5 |
| 20260510080104 | 75 | 105 | 1.0 | 7.0 | 0.00 | 0.06 | 0.06 | 62 | 1014.5 |
| 20260510080004 | 75 | 106 | 1.0 | 7.0 | 0.00 | 0.06 | 0.06 | 62 | 1014.5 |
| 20260510075904 | 74 | 108 | 1.0 | 7.0 | 0.00 | 0.06 | 0.06 | 62 | 1014.5 |
| 20260510075804 | 74 | 110 | 1.0 | 7.0 | 0.00 | 0.06 | 0.06 | 63 | 1014.6 |
| 20260510075704 | 74 | 109 | 1.0 | 7.0 | 0.00 | 0.06 | 0.06 | 63 | 1014.5 |
| 20260510075604 | 74 | 109 | 1.0 | 4.0 | 0.00 | 0.06 | 0.06 | 64 | 1014.5 |
| 20260510075504 | 74 | 110 | 1.0 | 4.0 | 0.00 | 0.06 | 0.06 | 64 | 1014.4 |
| 20260510075404 | 74 | 110 | 1.0 | 4.0 | 0.00 | 0.06 | 0.06 | 64 | 1014.5 |
| 20260510075306 | 74 | 110 | 1.0 | 4.0 | 0.00 | 0.06 | 0.06 | 64 | 1014.5 |
| 20260510075204 | 74 | 111 | 1.0 | 4.0 | 0.00 | 0.06 | 0.06 | 65 | 1014.5 |
| 20260510075104 | 74 | 114 | 1.0 | 6.0 | 0.00 | 0.06 | 0.06 | 65 | 1014.5 |
| 20260510075004 | 73 | 113 | 1.0 | 6.0 | 0.00 | 0.06 | 0.06 | 65 | 1014.5 |
| 20260510074904 | 73 | 111 | 1.0 | 6.0 | 0.00 | 0.06 | 0.06 | 66 | 1014.5 |
| 20260510074804 | 73 | 111 | 1.0 | 6.0 | 0.00 | 0.06 | 0.06 | 66 | 1014.5 |
| 20260510074704 | 73 | 111 | 1.0 | 6.0 | 0.00 | 0.06 | 0.06 | 67 | 1014.5 |
| 20260510074604 | 73 | 111 | 1.0 | 6.0 | 0.00 | 0.06 | 0.06 | 67 | 1014.5 |
| 20260510074504 | 73 | 109 | 1.0 | 6.0 | 0.00 | 0.06 | 0.06 | 68 | 1014.5 |
| 20260510074404 | 73 | 109 | 1.0 | 6.0 | 0.00 | 0.06 | 0.06 | 68 | 1014.5 |
| 20260510074304 | 73 | 109 | 1.0 | 6.0 | 0.00 | 0.06 | 0.06 | 68 | 1014.5 |
| 20260510074204 | 73 | 108 | 1.0 | 6.0 | 0.00 | 0.06 | 0.06 | 69 | 1014.4 |
| 20260510074104 | 73 | 105 | 1.0 | 6.0 | 0.00 | 0.06 | 0.06 | 69 | 1014.5 |
| 20260510074004 | 73 | 105 | 1.0 | 6.0 | 0.00 | 0.06 | 0.06 | 69 | 1014.5 |
| 20260510073904 | 73 | 108 | 1.0 | 5.0 | 0.00 | 0.06 | 0.06 | 70 | 1014.6 |
| 20260510073804 | 73 | 109 | 1.0 | 5.0 | 0.00 | 0.06 | 0.06 | 70 | 1014.5 |
| 20260510073704 | 73 | 110 | 1.0 | 5.0 | 0.00 | 0.06 | 0.06 | 70 | 1014.5 |
| 20260510073604 | 73 | 110 | 1.0 | 5.0 | 0.00 | 0.06 | 0.06 | 71 | 1014.5 |
| 20260510073504 | 73 | 111 | 1.0 | 5.0 | 0.00 | 0.06 | 0.06 | 71 | 1014.5 |
| 20260510073404 | 73 | 111 | 1.0 | 5.0 | 0.00 | 0.06 | 0.06 | 71 | 1014.5 |
| 20260510073304 | 73 | 112 | 1.0 | 5.0 | 0.00 | 0.06 | 0.06 | 71 | 1014.6 |
| 20260510073204 | 73 | 111 | 1.0 | 5.0 | 0.00 | 0.06 | 0.06 | 71 | 1014.6 |
| 20260510073104 | 73 | 113 | 1.0 | 5.0 | 0.00 | 0.06 | 0.06 | 71 | 1014.5 |
| 20260510073004 | 73 | 113 | 1.0 | 5.0 | 0.00 | 0.06 | 0.06 | 71 | 1014.5 |
| 20260510072904 | 73 | 110 | 1.0 | 5.0 | 0.00 | 0.06 | 0.06 | 72 | 1014.6 |
| 20260510072804 | 73 | 108 | 1.0 | 4.0 | 0.00 | 0.06 | 0.06 | 73 | 1014.5 |
| 20260510072704 | 73 | 102 | 0.0 | 4.0 | 0.00 | 0.06 | 0.06 | 73 | 1014.5 |
| 20260510072604 | 73 | 103 | 1.0 | 4.0 | 0.00 | 0.06 | 0.06 | 73 | 1014.6 |
| 20260510072504 | 73 | 103 | 1.0 | 4.0 | 0.00 | 0.06 | 0.06 | 73 | 1014.6 |
| 20260510072404 | 73 | 102 | 1.0 | 4.0 | 0.00 | 0.06 | 0.06 | 73 | 1014.7 |
| 20260510072305 | 73 | 104 | 1.0 | 4.0 | 0.00 | 0.06 | 0.06 | 73 | 1014.7 |
| 20260510072204 | 73 | 104 | 1.0 | 4.0 | 0.00 | 0.06 | 0.06 | 73 | 1014.6 |
| 20260510072104 | 73 | 104 | 1.0 | 4.0 | 0.00 | 0.06 | 0.06 | 73 | 1014.6 |
| 20260510072004 | 73 | 104 | 1.0 | 4.0 | 0.00 | 0.06 | 0.06 | 74 | 1014.7 |
| 20260510071904 | 73 | 105 | 0.0 | 3.0 | 0.00 | 0.06 | 0.06 | 74 | 1014.7 |
| 20260510071804 | 73 | 105 | 0.0 | 3.0 | 0.00 | 0.06 | 0.06 | 74 | 1014.5 |
| 20260510071704 | 73 | 112 | 0.0 | 3.0 | 0.00 | 0.06 | 0.06 | 75 | 1014.6 |
| 20260510071604 | 72 | 114 | 0.0 | 4.0 | 0.00 | 0.06 | 0.06 | 75 | 1014.5 |
| 20260510071504 | 72 | 110 | 1.0 | 5.0 | 0.00 | 0.06 | 0.06 | 76 | 1014.5 |
| 20260510071404 | 72 | 111 | 1.0 | 5.0 | 0.00 | 0.06 | 0.06 | 76 | 1014.6 |
| 20260510071304 | 72 | 106 | 1.0 | 5.0 | 0.00 | 0.06 | 0.06 | 76 | 1014.5 |
| 20260510071203 | 72 | 107 | 1.0 | 5.0 | 0.00 | 0.06 | 0.06 | 77 | 1014.5 |
| 20260510071103 | 72 | 107 | 1.0 | 5.0 | 0.00 | 0.06 | 0.06 | 77 | 1014.6 |
| 20260510071004 | 72 | 107 | 1.0 | 5.0 | 0.00 | 0.06 | 0.06 | 77 | 1014.5 |
| 20260510070903 | 72 | 106 | 1.0 | 5.0 | 0.00 | 0.06 | 0.06 | 77 | 1014.5 |
| 20260510070804 | 72 | 106 | 1.0 | 5.0 | 0.00 | 0.06 | 0.06 | 78 | 1014.5 |
| 20260510070703 | 71 | 105 | 1.0 | 5.0 | 0.00 | 0.06 | 0.06 | 79 | 1014.6 |
| 20260510070604 | 71 | 104 | 1.0 | 5.0 | 0.00 | 0.06 | 0.06 | 79 | 1014.5 |
| 20260510070504 | 71 | 104 | 1.0 | 4.0 | 0.00 | 0.06 | 0.06 | 79 | 1014.6 |
| 20260510070403 | 71 | 101 | 1.0 | 4.0 | 0.00 | 0.06 | 0.06 | 80 | 1014.6 |
| 20260510070303 | 71 | 106 | 0.0 | 4.0 | 0.00 | 0.06 | 0.06 | 81 | 1014.6 |
| 20260510070203 | 71 | 103 | 0.0 | 4.0 | 0.00 | 0.06 | 0.06 | 81 | 1014.5 |
| 20260510070103 | 71 | 99 | 0.0 | 2.0 | 0.00 | 0.06 | 0.06 | 82 | 1014.5 |
| 20260510070004 | 70 | 99 | 0.0 | 2.0 | 0.00 | 0.06 | 0.06 | 82 | 1014.7 |
| 20260510065903 | 70 | 112 | 0.0 | 2.0 | 0.00 | 0.06 | 0.06 | 82 | 1014.7 |
| 20260510065803 | 70 | 0 | 0.0 | 0.0 | 0.00 | 0.06 | 0.06 | 82 | 1014.6 |
| 20260510065703 | 70 | 0 | 0.0 | 0.0 | 0.00 | 0.06 | 0.06 | 82 | 1014.7 |
| 20260510065603 | 69 | 0 | 0.0 | 0.0 | 0.00 | 0.06 | 0.06 | 83 | 1014.7 |
| 20260510065503 | 69 | 0 | 0.0 | 0.0 | 0.00 | 0.06 | 0.06 | 83 | 1014.7 |
| 20260510065403 | 69 | 0 | 0.0 | 0.0 | 0.00 | 0.06 | 0.06 | 83 | 1014.8 |
| 20260510065306 | 68 | 0 | 0.0 | 0.0 | 0.00 | 0.06 | 0.06 | 83 | 1014.7 |
| 20260510065203 | 68 | 0 | 0.0 | 0.0 | 0.00 | 0.06 | 0.06 | 83 | 1014.8 |
| 20260510065103 | 68 | 0 | 0.0 | 0.0 | 0.00 | 0.06 | 0.06 | 83 | 1014.7 |
| 20260510065003 | 68 | 0 | 0.0 | 0.0 | 0.00 | 0.06 | 0.06 | 83 | 1014.8 |
| 20260510064903 | 68 | 0 | 0.0 | 0.0 | 0.00 | 0.06 | 0.06 | 83 | 1014.7 |
| 20260510064803 | 67 | 0 | 0.0 | 0.0 | 0.00 | 0.06 | 0.06 | 83 | 1014.7 |
| 20260510064703 | 67 | 0 | 0.0 | 0.0 | 0.00 | 0.06 | 0.06 | 83 | 1014.7 |
| 20260510064603 | 67 | 0 | 0.0 | 0.0 | 0.00 | 0.06 | 0.06 | 83 | 1014.8 |
| 20260510064503 | 67 | 0 | 0.0 | 0.0 | 0.00 | 0.06 | 0.06 | 83 | 1014.8 |
| 20260510064403 | 67 | 0 | 0.0 | 0.0 | 0.00 | 0.06 | 0.06 | 83 | 1014.9 |
| 20260510064303 | 67 | 0 | 0.0 | 0.0 | 0.00 | 0.06 | 0.06 | 83 | 1015.0 |
| 20260510064203 | 67 | 0 | 0.0 | 0.0 | 0.00 | 0.06 | 0.06 | 83 | 1015.2 |
| 20260510064103 | 67 | 0 | 0.0 | 0.0 | 0.00 | 0.06 | 0.06 | 83 | 1015.3 |
| 20260510064003 | 67 | 0 | 0.0 | 0.0 | 0.00 | 0.06 | 0.06 | 83 | 1015.4 |
| 20260510063903 | 67 | 0 | 0.0 | 0.0 | 0.00 | 0.06 | 0.06 | 83 | 1015.4 |
| 20260510063803 | 67 | 0 | 0.0 | 0.0 | 0.00 | 0.06 | 0.06 | 83 | 1015.3 |
| 20260510063703 | 67 | 0 | 0.0 | 0.0 | 0.00 | 0.06 | 0.06 | 83 | 1015.2 |
| 20260510063603 | 67 | 0 | 0.0 | 0.0 | 0.00 | 0.06 | 0.06 | 83 | 1015.2 |
| 20260510063503 | 67 | 0 | 0.0 | 0.0 | 0.00 | 0.06 | 0.06 | 83 | 1015.2 |
| 20260510063403 | 67 | 0 | 0.0 | 0.0 | 0.00 | 0.06 | 0.06 | 83 | 1015.2 |
| 20260510063303 | 67 | 0 | 0.0 | 0.0 | 0.00 | 0.06 | 0.06 | 83 | 1015.1 |
| 20260510063203 | 67 | 0 | 0.0 | 0.0 | 0.00 | 0.06 | 0.06 | 83 | 1015.2 |
| 20260510063103 | 67 | 292 | 0.0 | 3.0 | 0.00 | 0.06 | 0.06 | 83 | 1015.3 |
| 20260510063003 | 67 | 292 | 0.0 | 3.0 | 0.00 | 0.06 | 0.06 | 83 | 1015.4 |
| 20260510062903 | 67 | 292 | 0.0 | 3.0 | 0.00 | 0.06 | 0.06 | 83 | 1015.6 |
| 20260510062803 | 67 | 292 | 0.0 | 3.0 | 0.00 | 0.06 | 0.06 | 83 | 1015.7 |
| 20260510062703 | 67 | 292 | 0.0 | 3.0 | 0.00 | 0.06 | 0.06 | 83 | 1015.7 |
| 20260510062603 | 67 | 290 | 0.0 | 3.0 | 0.00 | 0.06 | 0.06 | 84 | 1015.8 |
| 20260510062503 | 67 | 290 | 0.0 | 3.0 | 0.00 | 0.06 | 0.06 | 84 | 1015.9 |
| 20260510062403 | 67 | 290 | 0.0 | 3.0 | 0.00 | 0.06 | 0.06 | 84 | 1015.9 |
| 20260510062306 | 66 | 290 | 0.0 | 3.0 | 0.00 | 0.06 | 0.06 | 84 | 1015.9 |
| 20260510062203 | 66 | 290 | 0.0 | 3.0 | 0.00 | 0.06 | 0.06 | 84 | 1015.8 |
| 20260510062103 | 66 | 290 | 0.0 | 3.0 | 0.00 | 0.06 | 0.06 | 84 | 1015.8 |
| 20260510062003 | 66 | 289 | 0.0 | 3.0 | 0.00 | 0.06 | 0.06 | 84 | 1015.8 |
| 20260510061903 | 66 | 287 | 0.0 | 3.0 | 0.00 | 0.06 | 0.06 | 84 | 1015.8 |
| 20260510061803 | 66 | 287 | 0.0 | 3.0 | 0.00 | 0.06 | 0.06 | 84 | 1015.8 |
| 20260510061703 | 66 | 283 | 0.0 | 2.0 | 0.00 | 0.06 | 0.06 | 84 | 1015.9 |
| 20260510061603 | 66 | 0 | 0.0 | 0.0 | 0.00 | 0.06 | 0.06 | 84 | 1016.0 |
| 20260510061503 | 66 | 0 | 0.0 | 0.0 | 0.00 | 0.06 | 0.06 | 84 | 1016.0 |
| 20260510061403 | 66 | 0 | 0.0 | 0.0 | 0.00 | 0.06 | 0.06 | 84 | 1016.2 |
| 20260510061303 | 66 | 0 | 0.0 | 0.0 | 0.00 | 0.06 | 0.06 | 84 | 1016.2 |
| 20260510061203 | 66 | 112 | 0.0 | 1.0 | 0.00 | 0.06 | 0.06 | 84 | 1016.1 |
| 20260510061103 | 66 | 112 | 0.0 | 1.0 | 0.00 | 0.06 | 0.06 | 84 | 1016.2 |
| 20260510061003 | 66 | 112 | 0.0 | 1.0 | 0.00 | 0.06 | 0.06 | 84 | 1016.2 |
| 20260510060903 | 66 | 112 | 0.0 | 1.0 | 0.00 | 0.06 | 0.06 | 84 | 1016.1 |
| 20260510060803 | 66 | 112 | 0.0 | 1.0 | 0.00 | 0.06 | 0.06 | 84 | 1016.2 |
| 20260510060703 | 65 | 112 | 0.0 | 1.0 | 0.00 | 0.06 | 0.06 | 84 | 1016.3 |
| 20260510060603 | 65 | 112 | 0.0 | 1.0 | 0.00 | 0.06 | 0.06 | 84 | 1016.3 |
| 20260510060503 | 65 | 112 | 0.0 | 3.0 | 0.00 | 0.06 | 0.06 | 84 | 1016.2 |
| 20260510060403 | 65 | 112 | 0.0 | 3.0 | 0.00 | 0.06 | 0.06 | 84 | 1016.2 |
| 20260510060303 | 65 | 105 | 0.0 | 6.0 | 0.00 | 0.06 | 0.06 | 84 | 1016.2 |
| 20260510060203 | 65 | 106 | 1.0 | 6.0 | 0.00 | 0.06 | 0.06 | 84 | 1016.2 |
| 20260510060003 | 65 | 107 | 1.0 | 6.0 | 0.00 | 0.06 | 0.06 | 83 | 1016.1 |
| 20260510055903 | 65 | 108 | 1.0 | 6.0 | 0.00 | 0.06 | 0.06 | 84 | 1016.0 |
| 20260510055803 | 65 | 108 | 1.0 | 6.0 | 0.00 | 0.06 | 0.06 | 84 | 1015.8 |
| 20260510055703 | 65 | 109 | 1.0 | 6.0 | 0.00 | 0.06 | 0.06 | 84 | 1015.8 |
| 20260510055603 | 65 | 109 | 1.0 | 6.0 | 0.00 | 0.06 | 0.06 | 84 | 1015.7 |
| 20260510055503 | 65 | 109 | 1.0 | 6.0 | 0.00 | 0.06 | 0.06 | 84 | 1015.8 |
| 20260510055403 | 65 | 109 | 1.0 | 6.0 | 0.00 | 0.06 | 0.06 | 83 | 1015.9 |
| 20260510055306 | 65 | 111 | 1.0 | 5.0 | 0.00 | 0.06 | 0.06 | 83 | 1016.1 |
| 20260510055203 | 66 | 111 | 1.0 | 5.0 | 0.00 | 0.06 | 0.06 | 83 | 1016.2 |
| 20260510055103 | 66 | 112 | 1.0 | 5.0 | 0.00 | 0.06 | 0.06 | 83 | 1016.4 |
| 20260510055003 | 66 | 112 | 1.0 | 5.0 | 0.00 | 0.06 | 0.06 | 83 | 1016.4 |
| 20260510054903 | 66 | 111 | 1.0 | 5.0 | 0.00 | 0.06 | 0.06 | 83 | 1016.4 |
| 20260510054803 | 66 | 110 | 1.0 | 5.0 | 0.00 | 0.06 | 0.06 | 83 | 1016.4 |
| 20260510054703 | 66 | 109 | 0.0 | 4.0 | 0.00 | 0.06 | 0.06 | 83 | 1016.4 |
| 20260510054603 | 66 | 107 | 0.0 | 4.0 | 0.00 | 0.06 | 0.06 | 83 | 1016.3 |
| 20260510054503 | 66 | 108 | 1.0 | 4.0 | 0.00 | 0.06 | 0.06 | 83 | 1016.2 |
| 20260510054403 | 66 | 108 | 1.0 | 4.0 | 0.00 | 0.06 | 0.06 | 83 | 1016.2 |
| 20260510054303 | 66 | 108 | 1.0 | 4.0 | 0.00 | 0.06 | 0.06 | 83 | 1016.2 |
| 20260510054203 | 66 | 107 | 1.0 | 4.0 | 0.00 | 0.06 | 0.06 | 83 | 1016.1 |
| 20260510054103 | 66 | 106 | 0.0 | 4.0 | 0.00 | 0.06 | 0.06 | 83 | 1016.2 |
| 20260510054003 | 66 | 106 | 0.0 | 4.0 | 0.00 | 0.06 | 0.06 | 83 | 1016.3 |
| 20260510053903 | 66 | 107 | 0.0 | 4.0 | 0.00 | 0.06 | 0.06 | 83 | 1016.2 |
| 20260510053803 | 66 | 107 | 0.0 | 4.0 | 0.00 | 0.06 | 0.06 | 83 | 1016.3 |
| 20260510053703 | 66 | 104 | 0.0 | 4.0 | 0.00 | 0.06 | 0.06 | 83 | 1016.2 |
| 20260510053603 | 66 | 112 | 0.0 | 4.0 | 0.00 | 0.06 | 0.06 | 83 | 1016.1 |
| 20260510053503 | 66 | 292 | 0.0 | 4.0 | 0.00 | 0.06 | 0.06 | 83 | 1016.1 |
| 20260510053403 | 66 | 292 | 0.0 | 4.0 | 0.00 | 0.06 | 0.06 | 83 | 1015.9 |
| 20260510053303 | 66 | 292 | 0.0 | 4.0 | 0.00 | 0.06 | 0.06 | 83 | 1015.8 |
| 20260510053203 | 66 | 286 | 0.0 | 4.0 | 0.00 | 0.06 | 0.06 | 83 | 1015.8 |
| 20260510053103 | 66 | 286 | 0.0 | 4.0 | 0.00 | 0.06 | 0.06 | 83 | 1015.6 |
| 20260510053003 | 66 | 288 | 0.0 | 4.0 | 0.00 | 0.06 | 0.06 | 83 | 1015.6 |
| 20260510052903 | 66 | 290 | 0.0 | 4.0 | 0.00 | 0.06 | 0.06 | 83 | 1015.5 |
| 20260510052804 | 66 | 291 | 0.0 | 4.0 | 0.00 | 0.06 | 0.06 | 83 | 1015.5 |
| 20260510052704 | 66 | 290 | 0.0 | 4.0 | 0.00 | 0.06 | 0.06 | 83 | 1015.3 |
| 20260510052604 | 65 | 290 | 1.0 | 4.0 | 0.00 | 0.06 | 0.06 | 84 | 1015.2 |
| 20260510052504 | 65 | 290 | 1.0 | 4.0 | 0.00 | 0.06 | 0.06 | 84 | 1015.1 |
| 20260510052404 | 65 | 290 | 1.0 | 4.0 | 0.00 | 0.06 | 0.06 | 84 | 1015.1 |
| 20260510052306 | 65 | 292 | 1.0 | 4.0 | 0.00 | 0.06 | 0.06 | 84 | 1015.2 |
| 20260510052204 | 65 | 292 | 1.0 | 4.0 | 0.00 | 0.06 | 0.06 | 84 | 1015.3 |
| 20260510052104 | 65 | 293 | 1.0 | 4.0 | 0.00 | 0.06 | 0.06 | 84 | 1015.4 |
| 20260510052004 | 65 | 293 | 1.0 | 4.0 | 0.00 | 0.06 | 0.06 | 84 | 1015.5 |
| 20260510051904 | 65 | 293 | 1.0 | 5.0 | 0.00 | 0.06 | 0.06 | 83 | 1015.5 |
| 20260510051804 | 65 | 294 | 1.0 | 5.0 | 0.00 | 0.06 | 0.06 | 84 | 1015.4 |
| 20260510051704 | 65 | 296 | 1.0 | 5.0 | 0.00 | 0.06 | 0.06 | 84 | 1015.4 |
| 20260510051604 | 65 | 296 | 1.0 | 5.0 | 0.00 | 0.06 | 0.06 | 84 | 1015.3 |
| 20260510051504 | 65 | 296 | 1.0 | 5.0 | 0.00 | 0.06 | 0.06 | 84 | 1015.4 |
| 20260510051404 | 65 | 296 | 1.0 | 5.0 | 0.00 | 0.06 | 0.06 | 84 | 1015.4 |
| 20260510051304 | 65 | 295 | 1.0 | 5.0 | 0.00 | 0.06 | 0.06 | 84 | 1015.4 |
| 20260510051204 | 65 | 296 | 1.0 | 5.0 | 0.00 | 0.06 | 0.06 | 84 | 1015.4 |
| 20260510051104 | 65 | 296 | 1.0 | 5.0 | 0.00 | 0.06 | 0.06 | 84 | 1015.2 |
| 20260510051004 | 65 | 296 | 1.0 | 5.0 | 0.02 | 0.06 | 0.06 | 84 | 1015.2 |
| 20260510050904 | 65 | 297 | 1.0 | 4.0 | 0.02 | 0.06 | 0.06 | 84 | 1015.1 |
| 20260510050804 | 65 | 296 | 1.0 | 4.0 | 0.02 | 0.06 | 0.06 | 84 | 1015.0 |
| 20260510050704 | 65 | 293 | 1.0 | 4.0 | 0.02 | 0.06 | 0.06 | 84 | 1014.9 |
| 20260510050604 | 65 | 295 | 1.0 | 4.0 | 0.02 | 0.06 | 0.06 | 84 | 1014.9 |
| 20260510050504 | 65 | 295 | 1.0 | 4.0 | 0.02 | 0.06 | 0.06 | 84 | 1014.9 |
| 20260510050404 | 65 | 294 | 1.0 | 4.0 | 0.02 | 0.06 | 0.06 | 84 | 1014.9 |
| 20260510050304 | 65 | 296 | 1.0 | 4.0 | 0.02 | 0.06 | 0.06 | 84 | 1014.9 |
| 20260510050204 | 65 | 295 | 1.0 | 4.0 | 0.02 | 0.06 | 0.06 | 84 | 1014.8 |
| 20260510050104 | 65 | 294 | 1.0 | 4.0 | 0.02 | 0.06 | 0.06 | 84 | 1014.7 |
| 20260510050004 | 65 | 294 | 2.0 | 5.0 | 0.02 | 0.06 | 0.06 | 84 | 1014.5 |
| 20260510045904 | 65 | 294 | 2.0 | 5.0 | 0.02 | 0.06 | 0.06 | 84 | 1014.4 |
| 20260510045804 | 65 | 293 | 2.0 | 5.0 | 0.02 | 0.06 | 0.06 | 84 | 1014.4 |
| 20260510045704 | 65 | 293 | 2.0 | 5.0 | 0.02 | 0.06 | 0.06 | 84 | 1014.2 |
| 20260510045604 | 65 | 293 | 2.0 | 5.0 | 0.02 | 0.06 | 0.06 | 84 | 1014.1 |
| 20260510045504 | 65 | 293 | 2.0 | 5.0 | 0.02 | 0.06 | 0.06 | 84 | 1014.1 |
| 20260510045404 | 65 | 293 | 2.0 | 5.0 | 0.02 | 0.06 | 0.06 | 84 | 1014.1 |
| 20260510045306 | 65 | 292 | 2.0 | 5.0 | 0.02 | 0.06 | 0.06 | 84 | 1014.1 |
| 20260510045204 | 65 | 292 | 2.0 | 5.0 | 0.02 | 0.06 | 0.06 | 84 | 1014.1 |
| 20260510045104 | 65 | 292 | 1.0 | 5.0 | 0.02 | 0.06 | 0.06 | 84 | 1014.2 |
| 20260510045004 | 65 | 292 | 1.0 | 4.0 | 0.02 | 0.06 | 0.06 | 84 | 1014.2 |
| 20260510044904 | 65 | 292 | 1.0 | 4.0 | 0.02 | 0.06 | 0.06 | 84 | 1014.2 |
| 20260510044804 | 65 | 292 | 1.0 | 4.0 | 0.02 | 0.06 | 0.06 | 84 | 1014.3 |
| 20260510044704 | 65 | 292 | 1.0 | 4.0 | 0.02 | 0.06 | 0.06 | 84 | 1014.3 |
| 20260510044603 | 65 | 291 | 1.0 | 3.0 | 0.02 | 0.06 | 0.06 | 84 | 1014.4 |
| 20260510044504 | 65 | 291 | 0.0 | 2.0 | 0.02 | 0.06 | 0.06 | 84 | 1014.4 |
| 20260510044404 | 65 | 290 | 0.0 | 2.0 | 0.02 | 0.06 | 0.06 | 84 | 1014.4 |
| 20260510044304 | 65 | 290 | 0.0 | 2.0 | 0.02 | 0.06 | 0.06 | 84 | 1014.4 |
| 20260510044204 | 65 | 290 | 0.0 | 2.0 | 0.02 | 0.06 | 0.06 | 84 | 1014.4 |
| 20260510044104 | 65 | 290 | 0.0 | 2.0 | 0.02 | 0.06 | 0.06 | 84 | 1014.4 |
| 20260510044004 | 65 | 290 | 0.0 | 2.0 | 0.02 | 0.06 | 0.06 | 84 | 1014.4 |
| 20260510043904 | 65 | 292 | 0.0 | 2.0 | 0.02 | 0.06 | 0.06 | 84 | 1014.4 |
| 20260510043803 | 65 | 292 | 0.0 | 2.0 | 0.02 | 0.06 | 0.06 | 83 | 1014.3 |
| 20260510043704 | 65 | 292 | 0.0 | 1.0 | 0.02 | 0.06 | 0.06 | 84 | 1014.3 |
| 20260510043604 | 65 | 292 | 0.0 | 1.0 | 0.02 | 0.06 | 0.06 | 83 | 1014.3 |
| 20260510043504 | 65 | 292 | 0.0 | 1.0 | 0.02 | 0.06 | 0.06 | 83 | 1014.5 |
| 20260510043403 | 65 | 292 | 0.0 | 1.0 | 0.02 | 0.06 | 0.06 | 83 | 1014.6 |
| 20260510043304 | 65 | 292 | 0.0 | 1.0 | 0.02 | 0.06 | 0.06 | 83 | 1014.7 |
| 20260510043204 | 65 | 292 | 0.0 | 1.0 | 0.02 | 0.06 | 0.06 | 83 | 1014.8 |
| 20260510043104 | 65 | 0 | 0.0 | 0.0 | 0.02 | 0.06 | 0.06 | 83 | 1014.9 |
| 20260510043004 | 65 | 0 | 0.0 | 0.0 | 0.02 | 0.06 | 0.06 | 83 | 1015.0 |
| 20260510042904 | 65 | 292 | 0.0 | 2.0 | 0.02 | 0.06 | 0.06 | 83 | 1015.0 |
| 20260510042804 | 65 | 292 | 0.0 | 2.0 | 0.02 | 0.06 | 0.06 | 83 | 1014.9 |
| 20260510042704 | 65 | 292 | 0.0 | 2.0 | 0.02 | 0.06 | 0.06 | 83 | 1014.9 |
| 20260510042603 | 65 | 292 | 0.0 | 2.0 | 0.02 | 0.06 | 0.06 | 83 | 1014.9 |
| 20260510042503 | 65 | 292 | 0.0 | 2.0 | 0.02 | 0.06 | 0.06 | 83 | 1014.8 |
| 20260510042403 | 65 | 292 | 0.0 | 2.0 | 0.02 | 0.06 | 0.06 | 83 | 1014.9 |
| 20260510042306 | 65 | 292 | 0.0 | 2.0 | 0.02 | 0.06 | 0.06 | 83 | 1014.8 |
| 20260510042203 | 65 | 292 | 0.0 | 2.0 | 0.02 | 0.06 | 0.06 | 83 | 1014.9 |
| 20260510042103 | 65 | 292 | 0.0 | 2.0 | 0.02 | 0.06 | 0.06 | 83 | 1015.0 |
| 20260510042004 | 65 | 292 | 0.0 | 2.0 | 0.02 | 0.06 | 0.06 | 83 | 1015.2 |
| 20260510041903 | 65 | 0 | 0.0 | 0.0 | 0.02 | 0.06 | 0.06 | 83 | 1015.5 |
| 20260510041804 | 65 | 0 | 0.0 | 0.0 | 0.02 | 0.06 | 0.06 | 83 | 1015.5 |
| 20260510041703 | 65 | 0 | 0.0 | 0.0 | 0.02 | 0.06 | 0.06 | 83 | 1015.6 |
| 20260510041603 | 65 | 0 | 0.0 | 0.0 | 0.02 | 0.06 | 0.06 | 83 | 1015.7 |
| 20260510041503 | 65 | 0 | 0.0 | 0.0 | 0.02 | 0.06 | 0.06 | 83 | 1015.8 |
| 20260510041403 | 65 | 0 | 0.0 | 0.0 | 0.02 | 0.06 | 0.06 | 83 | 1016.1 |
| 20260510041303 | 65 | 0 | 0.0 | 0.0 | 0.02 | 0.06 | 0.06 | 83 | 1016.2 |
| 20260510041203 | 65 | 0 | 0.0 | 0.0 | 0.02 | 0.06 | 0.06 | 83 | 1016.3 |
| 20260510041103 | 65 | 0 | 0.0 | 0.0 | 0.00 | 0.04 | 0.04 | 83 | 1016.5 |
| 20260510041003 | 65 | 0 | 0.0 | 0.0 | 0.00 | 0.04 | 0.04 | 83 | 1016.4 |
| 20260510040903 | 65 | 292 | 0.0 | 1.0 | 0.00 | 0.04 | 0.04 | 83 | 1016.4 |
| 20260510040803 | 65 | 292 | 0.0 | 1.0 | 0.02 | 0.04 | 0.04 | 83 | 1016.4 |
| 20260510040703 | 65 | 292 | 0.0 | 2.0 | 0.02 | 0.04 | 0.04 | 83 | 1016.4 |
| 20260510040603 | 65 | 292 | 0.0 | 2.0 | 0.02 | 0.04 | 0.04 | 83 | 1016.4 |
| 20260510040503 | 65 | 292 | 0.0 | 2.0 | 0.02 | 0.04 | 0.04 | 83 | 1016.4 |
| 20260510040403 | 65 | 292 | 0.0 | 2.0 | 0.02 | 0.04 | 0.04 | 83 | 1016.3 |
| 20260510040303 | 65 | 292 | 0.0 | 2.0 | 0.02 | 0.04 | 0.04 | 83 | 1016.2 |
| 20260510040203 | 65 | 292 | 0.0 | 2.0 | 0.02 | 0.04 | 0.04 | 83 | 1016.2 |
| 20260510040103 | 65 | 292 | 0.0 | 2.0 | 0.02 | 0.04 | 0.04 | 82 | 1016.2 |
| 20260510040003 | 65 | 292 | 0.0 | 2.0 | 0.02 | 0.04 | 0.04 | 82 | 1016.2 |
| 20260510035903 | 65 | 292 | 0.0 | 2.0 | 0.02 | 0.04 | 0.04 | 82 | 1016.2 |
| 20260510035803 | 65 | 292 | 0.0 | 3.0 | 0.02 | 0.04 | 0.04 | 82 | 1016.1 |
| 20260510035703 | 65 | 296 | 0.0 | 3.0 | 0.02 | 0.04 | 0.04 | 82 | 1016.0 |
| 20260510035603 | 65 | 295 | 0.0 | 3.0 | 0.02 | 0.04 | 0.04 | 82 | 1016.2 |
| 20260510035503 | 65 | 294 | 1.0 | 4.0 | 0.02 | 0.04 | 0.04 | 82 | 1016.2 |
| 20260510035403 | 65 | 293 | 1.0 | 4.0 | 0.02 | 0.04 | 0.04 | 82 | 1016.3 |
| 20260510035306 | 65 | 293 | 1.0 | 4.0 | 0.02 | 0.04 | 0.04 | 82 | 1016.4 |
| 20260510035203 | 65 | 293 | 1.0 | 4.0 | 0.02 | 0.04 | 0.04 | 82 | 1016.4 |
| 20260510035103 | 65 | 293 | 1.0 | 4.0 | 0.02 | 0.04 | 0.04 | 82 | 1016.5 |
| 20260510035003 | 65 | 293 | 1.0 | 4.0 | 0.02 | 0.04 | 0.04 | 82 | 1016.5 |
| 20260510034903 | 65 | 293 | 1.0 | 4.0 | 0.02 | 0.04 | 0.04 | 81 | 1016.4 |
| 20260510034803 | 65 | 295 | 1.0 | 4.0 | 0.02 | 0.04 | 0.04 | 81 | 1016.4 |
| 20260510034703 | 65 | 295 | 1.0 | 4.0 | 0.02 | 0.04 | 0.04 | 81 | 1016.4 |
| 20260510034603 | 65 | 296 | 1.0 | 4.0 | 0.02 | 0.04 | 0.04 | 81 | 1016.4 |
| 20260510034503 | 65 | 297 | 1.0 | 4.0 | 0.02 | 0.04 | 0.04 | 81 | 1016.5 |
| 20260510034403 | 65 | 300 | 0.0 | 3.0 | 0.02 | 0.04 | 0.04 | 81 | 1016.5 |
| 20260510034303 | 65 | 303 | 0.0 | 3.0 | 0.02 | 0.04 | 0.04 | 81 | 1016.6 |
| 20260510034203 | 65 | 303 | 0.0 | 3.0 | 0.02 | 0.04 | 0.04 | 81 | 1016.7 |
| 20260510034103 | 65 | 308 | 0.0 | 3.0 | 0.02 | 0.04 | 0.04 | 81 | 1016.8 |
| 20260510034003 | 65 | 309 | 0.0 | 3.0 | 0.02 | 0.04 | 0.04 | 81 | 1017.1 |
| 20260510033903 | 65 | 304 | 0.0 | 3.0 | 0.02 | 0.04 | 0.04 | 81 | 1017.0 |
| 20260510033803 | 65 | 297 | 0.0 | 2.0 | 0.02 | 0.04 | 0.04 | 81 | 1017.2 |
| 20260510033703 | 65 | 294 | 0.0 | 2.0 | 0.02 | 0.04 | 0.04 | 81 | 1017.2 |
| 20260510033603 | 65 | 294 | 0.0 | 2.0 | 0.02 | 0.04 | 0.04 | 81 | 1017.2 |
| 20260510033503 | 65 | 295 | 0.0 | 3.0 | 0.02 | 0.04 | 0.04 | 81 | 1017.0 |
| 20260510033403 | 65 | 294 | 1.0 | 4.0 | 0.02 | 0.04 | 0.04 | 81 | 1016.8 |
| 20260510033303 | 65 | 293 | 1.0 | 4.0 | 0.02 | 0.04 | 0.04 | 81 | 1016.8 |
| 20260510033203 | 65 | 294 | 1.0 | 6.0 | 0.02 | 0.04 | 0.04 | 81 | 1016.6 |
| 20260510033103 | 64 | 294 | 1.0 | 6.0 | 0.02 | 0.04 | 0.04 | 81 | 1016.6 |
| 20260510033003 | 64 | 294 | 1.0 | 6.0 | 0.02 | 0.04 | 0.04 | 81 | 1016.7 |
| 20260510032903 | 64 | 295 | 1.0 | 6.0 | 0.02 | 0.04 | 0.04 | 81 | 1016.7 |
| 20260510032803 | 64 | 295 | 1.0 | 6.0 | 0.04 | 0.04 | 0.04 | 81 | 1016.7 |
| 20260510032703 | 64 | 295 | 1.0 | 6.0 | 0.04 | 0.04 | 0.04 | 81 | 1016.7 |
| 20260510032603 | 64 | 294 | 1.0 | 6.0 | 0.04 | 0.04 | 0.04 | 81 | 1016.8 |
| 20260510032503 | 64 | 294 | 1.0 | 6.0 | 0.04 | 0.04 | 0.04 | 81 | 1016.7 |
| 20260510032403 | 64 | 295 | 0.0 | 6.0 | 0.04 | 0.04 | 0.04 | 81 | 1016.8 |
| 20260510032306 | 64 | 295 | 1.0 | 6.0 | 0.04 | 0.04 | 0.04 | 81 | 1016.8 |
| 20260510032203 | 64 | 299 | 0.0 | 4.0 | 0.04 | 0.04 | 0.04 | 81 | 1016.8 |
| 20260510032103 | 64 | 299 | 1.0 | 4.0 | 0.04 | 0.04 | 0.04 | 81 | 1016.7 |
| 20260510032003 | 64 | 299 | 1.0 | 4.0 | 0.04 | 0.04 | 0.04 | 81 | 1016.8 |
| 20260510031903 | 64 | 298 | 1.0 | 4.0 | 0.04 | 0.04 | 0.04 | 81 | 1016.8 |
| 20260510031803 | 65 | 298 | 1.0 | 4.0 | 0.04 | 0.04 | 0.04 | 81 | 1016.9 |
| 20260510031703 | 65 | 298 | 1.0 | 4.0 | 0.04 | 0.04 | 0.04 | 81 | 1016.9 |
| 20260510031603 | 65 | 298 | 1.0 | 4.0 | 0.04 | 0.04 | 0.04 | 81 | 1016.9 |
| 20260510031503 | 65 | 297 | 1.0 | 4.0 | 0.04 | 0.04 | 0.04 | 81 | 1016.8 |
| 20260510031403 | 65 | 298 | 1.0 | 5.0 | 0.04 | 0.04 | 0.04 | 80 | 1016.8 |
| 20260510031303 | 65 | 299 | 1.0 | 5.0 | 0.04 | 0.04 | 0.04 | 80 | 1016.8 |
| 20260510031203 | 65 | 298 | 1.0 | 5.0 | 0.04 | 0.04 | 0.04 | 80 | 1016.8 |
| 20260510031103 | 65 | 298 | 1.0 | 5.0 | 0.04 | 0.04 | 0.04 | 80 | 1016.9 |
| 20260510031003 | 65 | 298 | 1.0 | 5.0 | 0.04 | 0.04 | 0.04 | 80 | 1016.9 |
| 20260510030903 | 65 | 298 | 1.0 | 5.0 | 0.02 | 0.02 | 0.02 | 80 | 1016.9 |
| 20260510030803 | 65 | 297 | 1.0 | 5.0 | 0.02 | 0.02 | 0.02 | 80 | 1016.9 |
| 20260510030703 | 65 | 297 | 1.0 | 5.0 | 0.02 | 0.02 | 0.02 | 80 | 1017.0 |
| 20260510030603 | 65 | 296 | 1.0 | 5.0 | 0.02 | 0.02 | 0.02 | 80 | 1017.1 |
| 20260510030503 | 65 | 296 | 1.0 | 5.0 | 0.02 | 0.02 | 0.02 | 79 | 1017.1 |
| 20260510030403 | 65 | 296 | 1.0 | 5.0 | 0.02 | 0.02 | 0.02 | 79 | 1017.2 |
| 20260510030303 | 65 | 294 | 1.0 | 5.0 | 0.02 | 0.02 | 0.02 | 79 | 1017.4 |
| 20260510030203 | 65 | 293 | 1.0 | 3.0 | 0.02 | 0.02 | 0.02 | 79 | 1017.5 |
| 20260510030103 | 65 | 292 | 1.0 | 3.0 | 0.02 | 0.02 | 0.02 | 79 | 1017.7 |
| 20260510030003 | 65 | 292 | 1.0 | 3.0 | 0.02 | 0.02 | 0.02 | 79 | 1017.7 |
| 20260510025903 | 65 | 292 | 1.0 | 3.0 | 0.02 | 0.02 | 0.02 | 79 | 1017.7 |
| 20260510025803 | 65 | 292 | 1.0 | 3.0 | 0.02 | 0.02 | 0.02 | 79 | 1017.6 |
| 20260510025703 | 65 | 293 | 1.0 | 3.0 | 0.02 | 0.02 | 0.02 | 79 | 1017.8 |
| 20260510025603 | 65 | 293 | 0.0 | 3.0 | 0.02 | 0.02 | 0.02 | 79 | 1017.9 |
| 20260510025503 | 65 | 293 | 0.0 | 2.0 | 0.02 | 0.02 | 0.02 | 79 | 1017.9 |
| 20260510025403 | 65 | 292 | 0.0 | 2.0 | 0.02 | 0.02 | 0.02 | 79 | 1017.9 |
| 20260510025306 | 65 | 292 | 0.0 | 2.0 | 0.02 | 0.02 | 0.02 | 79 | 1017.8 |
| 20260510025203 | 65 | 292 | 0.0 | 1.0 | 0.02 | 0.02 | 0.02 | 79 | 1017.7 |
| 20260510025103 | 65 | 0 | 0.0 | 0.0 | 0.02 | 0.02 | 0.02 | 79 | 1017.7 |
| 20260510025003 | 65 | 0 | 0.0 | 0.0 | 0.02 | 0.02 | 0.02 | 79 | 1017.5 |
| 20260510024903 | 65 | 0 | 0.0 | 0.0 | 0.02 | 0.02 | 0.02 | 79 | 1017.5 |
| 20260510024803 | 65 | 0 | 0.0 | 0.0 | 0.02 | 0.02 | 0.02 | 79 | 1017.5 |
| 20260510024704 | 65 | 0 | 0.0 | 0.0 | 0.02 | 0.02 | 0.02 | 78 | 1017.4 |
| 20260510024604 | 66 | 0 | 0.0 | 0.0 | 0.02 | 0.02 | 0.02 | 78 | 1017.3 |
| 20260510024504 | 66 | 0 | 0.0 | 0.0 | 0.02 | 0.02 | 0.02 | 78 | 1017.3 |
| 20260510024404 | 65 | 0 | 0.0 | 0.0 | 0.02 | 0.02 | 0.02 | 78 | 1017.2 |
| 20260510024304 | 66 | 0 | 0.0 | 0.0 | 0.02 | 0.02 | 0.02 | 78 | 1017.2 |
| 20260510024204 | 66 | 0 | 0.0 | 0.0 | 0.02 | 0.02 | 0.02 | 78 | 1017.3 |
| 20260510024104 | 66 | 0 | 0.0 | 0.0 | 0.02 | 0.02 | 0.02 | 78 | 1017.3 |
| 20260510024004 | 66 | 0 | 0.0 | 0.0 | 0.02 | 0.02 | 0.02 | 78 | 1017.4 |
| 20260510023904 | 66 | 0 | 0.0 | 0.0 | 0.02 | 0.02 | 0.02 | 78 | 1017.6 |
| 20260510023804 | 66 | 0 | 0.0 | 0.0 | 0.02 | 0.02 | 0.02 | 78 | 1017.5 |
| 20260510023704 | 66 | 0 | 0.0 | 0.0 | 0.02 | 0.02 | 0.02 | 78 | 1017.6 |
| 20260510023604 | 66 | 0 | 0.0 | 0.0 | 0.02 | 0.02 | 0.02 | 77 | 1017.6 |
| 20260510023504 | 66 | 0 | 0.0 | 0.0 | 0.02 | 0.02 | 0.02 | 77 | 1017.7 |
| 20260510023404 | 66 | 0 | 0.0 | 0.0 | 0.02 | 0.02 | 0.02 | 77 | 1017.7 |
| 20260510023304 | 66 | 0 | 0.0 | 0.0 | 0.02 | 0.02 | 0.02 | 77 | 1017.7 |
| 20260510023204 | 66 | 0 | 0.0 | 0.0 | 0.02 | 0.02 | 0.02 | 77 | 1017.7 |
| 20260510023104 | 66 | 0 | 0.0 | 0.0 | 0.02 | 0.02 | 0.02 | 77 | 1017.8 |
| 20260510023004 | 66 | 0 | 0.0 | 0.0 | 0.02 | 0.02 | 0.02 | 77 | 1017.9 |
| 20260510022904 | 66 | 315 | 0.0 | 1.0 | 0.02 | 0.02 | 0.02 | 77 | 1017.9 |
| 20260510022804 | 66 | 315 | 0.0 | 1.0 | 0.00 | 0.00 | 0.00 | 76 | 1017.9 |
| 20260510022704 | 66 | 315 | 0.0 | 1.0 | 0.00 | 0.00 | 0.00 | 76 | 1017.9 |
| 20260510022604 | 66 | 315 | 0.0 | 1.0 | 0.00 | 0.00 | 0.00 | 76 | 1018.0 |
| 20260510022504 | 66 | 315 | 0.0 | 1.0 | 0.00 | 0.00 | 0.00 | 76 | 1017.9 |
| 20260510022404 | 66 | 62 | 0.0 | 4.0 | 0.00 | 0.00 | 0.00 | 76 | 1018.0 |
| 20260510022306 | 66 | 62 | 0.0 | 4.0 | 0.00 | 0.00 | 0.00 | 76 | 1018.1 |
| 20260510022204 | 66 | 62 | 0.0 | 4.0 | 0.00 | 0.00 | 0.00 | 76 | 1018.3 |
| 20260510022104 | 66 | 46 | 0.0 | 4.0 | 0.00 | 0.00 | 0.00 | 75 | 1018.3 |
| 20260510022004 | 66 | 46 | 0.0 | 4.0 | 0.00 | 0.00 | 0.00 | 75 | 1018.3 |
| 20260510021904 | 66 | 55 | 0.0 | 4.0 | 0.00 | 0.00 | 0.00 | 75 | 1018.4 |
| 20260510021804 | 66 | 71 | 0.0 | 4.0 | 0.00 | 0.00 | 0.00 | 75 | 1018.3 |
| 20260510021704 | 66 | 71 | 0.0 | 4.0 | 0.00 | 0.00 | 0.00 | 75 | 1018.3 |
| 20260510021604 | 66 | 71 | 0.0 | 4.0 | 0.00 | 0.00 | 0.00 | 75 | 1018.4 |
| 20260510021504 | 66 | 66 | 0.0 | 4.0 | 0.00 | 0.00 | 0.00 | 75 | 1018.4 |
| 20260510021404 | 67 | 302 | 0.0 | 2.0 | 0.00 | 0.00 | 0.00 | 75 | 1018.4 |
| 20260510021304 | 67 | 302 | 0.0 | 2.0 | 0.00 | 0.00 | 0.00 | 74 | 1018.4 |
| 20260510021204 | 67 | 302 | 0.0 | 2.0 | 0.00 | 0.00 | 0.00 | 74 | 1018.4 |
| 20260510021104 | 67 | 306 | 0.0 | 2.0 | 0.00 | 0.00 | 0.00 | 74 | 1018.4 |
| 20260510021004 | 67 | 306 | 0.0 | 2.0 | 0.00 | 0.00 | 0.00 | 74 | 1018.5 |
| 20260510020904 | 67 | 306 | 0.0 | 2.0 | 0.00 | 0.00 | 0.00 | 74 | 1018.4 |
| 20260510020804 | 67 | 51 | 0.0 | 2.0 | 0.00 | 0.00 | 0.00 | 73 | 1018.5 |
| 20260510020704 | 67 | 51 | 0.0 | 2.0 | 0.00 | 0.00 | 0.00 | 73 | 1018.4 |
| 20260510020604 | 67 | 80 | 0.0 | 2.0 | 0.00 | 0.00 | 0.00 | 73 | 1018.4 |
| 20260510020504 | 67 | 101 | 0.0 | 4.0 | 0.00 | 0.00 | 0.00 | 73 | 1018.4 |
| 20260510020404 | 67 | 102 | 0.0 | 4.0 | 0.00 | 0.00 | 0.00 | 73 | 1018.3 |
| 20260510020304 | 67 | 102 | 0.0 | 4.0 | 0.00 | 0.00 | 0.00 | 73 | 1018.3 |
| 20260510020204 | 67 | 102 | 0.0 | 4.0 | 0.00 | 0.00 | 0.00 | 72 | 1018.3 |
| 20260510020104 | 67 | 102 | 0.0 | 4.0 | 0.00 | 0.00 | 0.00 | 72 | 1018.2 |
| 20260510020004 | 67 | 102 | 0.0 | 4.0 | 0.00 | 0.00 | 0.00 | 72 | 1018.2 |
| 20260510015904 | 67 | 102 | 0.0 | 4.0 | 0.00 | 0.00 | 0.00 | 72 | 1018.2 |
| 20260510015804 | 67 | 107 | 0.0 | 4.0 | 0.00 | 0.00 | 0.00 | 72 | 1018.3 |
| 20260510015704 | 67 | 107 | 0.0 | 4.0 | 0.00 | 0.00 | 0.00 | 72 | 1018.3 |
| 20260510015603 | 67 | 112 | 0.0 | 4.0 | 0.00 | 0.00 | 0.00 | 71 | 1018.3 |
| 20260510015504 | 67 | 0 | 0.0 | 0.0 | 0.00 | 0.00 | 0.00 | 71 | 1018.2 |
| 20260510015404 | 67 | 0 | 0.0 | 0.0 | 0.00 | 0.00 | 0.00 | 71 | 1018.2 |
| 20260510015306 | 67 | 0 | 0.0 | 0.0 | 0.00 | 0.00 | 0.00 | 71 | 1018.0 |
| 20260510015204 | 67 | 0 | 0.0 | 0.0 | 0.00 | 0.00 | 0.00 | 71 | 1017.9 |
| 20260510015103 | 67 | 0 | 0.0 | 0.0 | 0.00 | 0.00 | 0.00 | 71 | 1017.9 |
| 20260510015003 | 67 | 0 | 0.0 | 0.0 | 0.00 | 0.00 | 0.00 | 71 | 1017.9 |
| 20260510014903 | 67 | 0 | 0.0 | 0.0 | 0.00 | 0.00 | 0.00 | 71 | 1017.8 |
| 20260510014803 | 67 | 0 | 0.0 | 0.0 | 0.00 | 0.00 | 0.00 | 71 | 1017.7 |
| 20260510014703 | 67 | 0 | 0.0 | 0.0 | 0.00 | 0.00 | 0.00 | 71 | 1017.6 |
| 20260510014603 | 67 | 0 | 0.0 | 0.0 | 0.00 | 0.00 | 0.00 | 71 | 1017.7 |
| 20260510014503 | 67 | 0 | 0.0 | 0.0 | 0.00 | 0.00 | 0.00 | 71 | 1017.5 |
| 20260510014403 | 67 | 0 | 0.0 | 0.0 | 0.00 | 0.00 | 0.00 | 71 | 1017.6 |
| 20260510014303 | 67 | 0 | 0.0 | 0.0 | 0.00 | 0.00 | 0.00 | 71 | 1017.5 |
| 20260510014203 | 67 | 0 | 0.0 | 0.0 | 0.00 | 0.00 | 0.00 | 71 | 1017.5 |
| 20260510014103 | 67 | 0 | 0.0 | 0.0 | 0.00 | 0.00 | 0.00 | 71 | 1017.5 |
| 20260510014003 | 67 | 0 | 0.0 | 0.0 | 0.00 | 0.00 | 0.00 | 71 | 1017.4 |
| 20260510013903 | 67 | 292 | 0.0 | 2.0 | 0.00 | 0.00 | 0.00 | 71 | 1017.4 |
| 20260510013803 | 67 | 299 | 0.0 | 2.0 | 0.00 | 0.00 | 0.00 | 71 | 1017.3 |
| 20260510013703 | 67 | 299 | 0.0 | 2.0 | 0.00 | 0.00 | 0.00 | 72 | 1017.3 |
| 20260510013603 | 67 | 299 | 0.0 | 2.0 | 0.00 | 0.00 | 0.00 | 71 | 1017.2 |
| 20260510013503 | 67 | 299 | 0.0 | 2.0 | 0.00 | 0.00 | 0.00 | 71 | 1017.2 |
| 20260510013403 | 67 | 299 | 0.0 | 2.0 | 0.00 | 0.00 | 0.00 | 71 | 1017.0 |
| 20260510013303 | 67 | 299 | 0.0 | 2.0 | 0.00 | 0.00 | 0.00 | 71 | 1017.0 |
| 20260510013203 | 67 | 299 | 0.0 | 2.0 | 0.00 | 0.00 | 0.00 | 71 | 1016.9 |
| 20260510013103 | 67 | 308 | 0.0 | 2.0 | 0.00 | 0.00 | 0.00 | 71 | 1016.9 |
| 20260510013003 | 67 | 308 | 0.0 | 2.0 | 0.00 | 0.00 | 0.00 | 71 | 1016.9 |
| 20260510012903 | 67 | 53 | 0.0 | 2.0 | 0.00 | 0.00 | 0.00 | 71 | 1016.8 |
| 20260510012803 | 67 | 104 | 0.0 | 4.0 | 0.00 | 0.00 | 0.00 | 71 | 1016.8 |
| 20260510012703 | 67 | 106 | 0.0 | 4.0 | 0.00 | 0.00 | 0.00 | 71 | 1016.8 |
| 20260510012603 | 67 | 106 | 0.0 | 4.0 | 0.00 | 0.00 | 0.00 | 71 | 1016.8 |
| 20260510012503 | 67 | 106 | 0.0 | 4.0 | 0.00 | 0.00 | 0.00 | 71 | 1016.9 |
| 20260510012403 | 67 | 106 | 0.0 | 4.0 | 0.00 | 0.00 | 0.00 | 71 | 1016.9 |
| 20260510012306 | 67 | 106 | 0.0 | 4.0 | 0.00 | 0.00 | 0.00 | 71 | 1016.9 |
| 20260510012203 | 67 | 106 | 0.0 | 4.0 | 0.00 | 0.00 | 0.00 | 71 | 1016.9 |
| 20260510012103 | 67 | 107 | 0.0 | 4.0 | 0.00 | 0.00 | 0.00 | 71 | 1016.9 |
| 20260510012003 | 67 | 107 | 0.0 | 4.0 | 0.00 | 0.00 | 0.00 | 71 | 1016.8 |
| 20260510011903 | 68 | 107 | 0.0 | 4.0 | 0.00 | 0.00 | 0.00 | 71 | 1016.9 |
| 20260510011803 | 68 | 123 | 0.0 | 2.0 | 0.00 | 0.00 | 0.00 | 71 | 1016.8 |
| 20260510011703 | 68 | 270 | 0.0 | 2.0 | 0.00 | 0.00 | 0.00 | 71 | 1016.8 |
| 20260510011603 | 68 | 262 | 0.0 | 2.0 | 0.00 | 0.00 | 0.00 | 71 | 1016.8 |
| 20260510011503 | 68 | 254 | 0.0 | 2.0 | 0.00 | 0.00 | 0.00 | 71 | 1016.9 |
| 20260510011403 | 68 | 254 | 0.0 | 2.0 | 0.00 | 0.00 | 0.00 | 71 | 1016.9 |
| 20260510011303 | 68 | 254 | 0.0 | 2.0 | 0.00 | 0.00 | 0.00 | 71 | 1016.8 |
| 20260510011203 | 68 | 199 | 0.0 | 2.0 | 0.00 | 0.00 | 0.00 | 71 | 1016.8 |
| 20260510011103 | 68 | 149 | 0.0 | 2.0 | 0.00 | 0.00 | 0.00 | 71 | 1016.6 |
| 20260510011003 | 68 | 149 | 0.0 | 2.0 | 0.00 | 0.00 | 0.00 | 71 | 1016.5 |
| 20260510010903 | 68 | 149 | 0.0 | 2.0 | 0.00 | 0.00 | 0.00 | 71 | 1016.5 |
| 20260510010803 | 68 | 120 | 0.0 | 2.0 | 0.00 | 0.00 | 0.00 | 71 | 1016.4 |
| 20260510010703 | 68 | 115 | 0.0 | 2.0 | 0.00 | 0.00 | 0.00 | 70 | 1016.4 |
| 20260510010603 | 68 | 116 | 0.0 | 2.0 | 0.00 | 0.00 | 0.00 | 70 | 1016.3 |
| 20260510010503 | 68 | 114 | 0.0 | 3.0 | 0.00 | 0.00 | 0.00 | 70 | 1016.3 |
| 20260510010403 | 68 | 121 | 0.0 | 3.0 | 0.00 | 0.00 | 0.00 | 70 | 1016.3 |
| 20260510010303 | 68 | 123 | 0.0 | 3.0 | 0.00 | 0.00 | 0.00 | 70 | 1016.2 |
| 20260510010203 | 68 | 305 | 0.0 | 4.0 | 0.00 | 0.00 | 0.00 | 70 | 1016.2 |
| 20260510010103 | 68 | 297 | 0.0 | 4.0 | 0.00 | 0.00 | 0.00 | 70 | 1016.3 |
| 20260510010003 | 68 | 297 | 0.0 | 4.0 | 0.00 | 0.00 | 0.00 | 70 | 1016.3 |
| 20260510005903 | 68 | 296 | 0.0 | 4.0 | 0.00 | 0.00 | 0.00 | 70 | 1016.2 |
| 20260510005803 | 68 | 301 | 0.0 | 4.0 | 0.00 | 0.00 | 0.00 | 70 | 1016.1 |
| 20260510005703 | 68 | 302 | 0.0 | 4.0 | 0.00 | 0.00 | 0.00 | 70 | 1015.9 |
| 20260510005603 | 68 | 302 | 0.0 | 4.0 | 0.00 | 0.00 | 0.00 | 70 | 1015.9 |
| 20260510005503 | 68 | 303 | 0.0 | 4.0 | 0.00 | 0.00 | 0.00 | 70 | 1015.9 |
| 20260510005403 | 68 | 33 | 1.0 | 7.0 | 0.00 | 0.00 | 0.00 | 70 | 1016.0 |
| 20260510005306 | 68 | 70 | 1.0 | 7.0 | 0.00 | 0.00 | 0.00 | 70 | 1016.0 |
| 20260510005203 | 68 | 93 | 1.0 | 7.0 | 0.00 | 0.00 | 0.00 | 70 | 1016.0 |
| 20260510005103 | 68 | 96 | 1.0 | 7.0 | 0.00 | 0.00 | 0.00 | 70 | 1016.0 |
| 20260510005003 | 68 | 95 | 1.0 | 7.0 | 0.00 | 0.00 | 0.00 | 70 | 1016.1 |
| 20260510004903 | 67 | 94 | 1.0 | 7.0 | 0.00 | 0.00 | 0.00 | 71 | 1016.0 |
| 20260510004803 | 67 | 90 | 1.0 | 7.0 | 0.00 | 0.00 | 0.00 | 71 | 1016.0 |
| 20260510004703 | 67 | 90 | 1.0 | 7.0 | 0.00 | 0.00 | 0.00 | 71 | 1016.0 |
| 20260510004603 | 67 | 90 | 1.0 | 7.0 | 0.00 | 0.00 | 0.00 | 71 | 1015.9 |
| 20260510004503 | 67 | 103 | 1.0 | 7.0 | 0.00 | 0.00 | 0.00 | 71 | 1015.9 |
| 20260510004403 | 67 | 103 | 0.0 | 5.0 | 0.00 | 0.00 | 0.00 | 71 | 1016.2 |
| 20260510004303 | 67 | 292 | 0.0 | 4.0 | 0.00 | 0.00 | 0.00 | 72 | 1016.3 |
| 20260510004203 | 67 | 297 | 0.0 | 4.0 | 0.00 | 0.00 | 0.00 | 72 | 1016.4 |
| 20260510004103 | 67 | 290 | 0.0 | 4.0 | 0.00 | 0.00 | 0.00 | 72 | 1016.2 |
| 20260510004003 | 67 | 290 | 0.0 | 4.0 | 0.00 | 0.00 | 0.00 | 72 | 1016.1 |
| 20260510003903 | 67 | 255 | 0.0 | 3.0 | 0.00 | 0.00 | 0.00 | 72 | 1016.0 |
| 20260510003803 | 67 | 145 | 0.0 | 3.0 | 0.00 | 0.00 | 0.00 | 72 | 1015.9 |
| 20260510003703 | 67 | 135 | 0.0 | 3.0 | 0.00 | 0.00 | 0.00 | 72 | 1015.6 |
| 20260510003603 | 67 | 136 | 0.0 | 3.0 | 0.00 | 0.00 | 0.00 | 72 | 1015.3 |
| 20260510003503 | 67 | 138 | 0.0 | 3.0 | 0.00 | 0.00 | 0.00 | 72 | 1015.1 |
| 20260510003403 | 67 | 136 | 0.0 | 3.0 | 0.00 | 0.00 | 0.00 | 72 | 1015.1 |
| 20260510003303 | 67 | 142 | 0.0 | 3.0 | 0.00 | 0.00 | 0.00 | 72 | 1015.1 |
| 20260510003203 | 67 | 136 | 0.0 | 3.0 | 0.00 | 0.00 | 0.00 | 72 | 1015.0 |
| 20260510003103 | 67 | 136 | 0.0 | 4.0 | 0.00 | 0.00 | 0.00 | 72 | 1014.9 |
| 20260510003004 | 67 | 136 | 0.0 | 4.0 | 0.00 | 0.00 | 0.00 | 72 | 1015.0 |
| 20260510002903 | 67 | 139 | 1.0 | 4.0 | 0.00 | 0.00 | 0.00 | 72 | 1014.9 |
| 20260510002803 | 67 | 125 | 1.0 | 4.0 | 0.00 | 0.00 | 0.00 | 72 | 1014.7 |
| 20260510002703 | 67 | 129 | 1.0 | 4.0 | 0.00 | 0.00 | 0.00 | 72 | 1014.8 |
| 20260510002603 | 66 | 123 | 0.0 | 4.0 | 0.00 | 0.00 | 0.00 | 72 | 1014.7 |
| 20260510002503 | 66 | 122 | 0.0 | 4.0 | 0.00 | 0.00 | 0.00 | 72 | 1014.7 |
| 20260510002403 | 66 | 117 | 0.0 | 4.0 | 0.00 | 0.00 | 0.00 | 72 | 1014.6 |
| 20260510002306 | 66 | 116 | 1.0 | 4.0 | 0.00 | 0.00 | 0.00 | 72 | 1014.7 |
| 20260510002203 | 66 | 118 | 0.0 | 4.0 | 0.00 | 0.00 | 0.00 | 72 | 1014.7 |
| 20260510002103 | 66 | 112 | 0.0 | 4.0 | 0.00 | 0.00 | 0.00 | 72 | 1014.6 |
| 20260510002003 | 66 | 90 | 0.0 | 4.0 | 0.00 | 0.00 | 0.00 | 72 | 1014.5 |
| 20260510001903 | 66 | 98 | 0.0 | 4.0 | 0.00 | 0.00 | 0.00 | 72 | 1014.6 |
| 20260510001803 | 66 | 3 | 0.0 | 3.0 | 0.00 | 0.00 | 0.00 | 72 | 1014.6 |
| 20260510001703 | 66 | 87 | 0.0 | 3.0 | 0.00 | 0.00 | 0.00 | 72 | 1014.5 |
| 20260510001603 | 66 | 103 | 0.0 | 3.0 | 0.00 | 0.00 | 0.00 | 72 | 1014.5 |
| 20260510001503 | 66 | 103 | 0.0 | 3.0 | 0.00 | 0.00 | 0.00 | 72 | 1014.5 |
| 20260510001403 | 66 | 85 | 0.0 | 3.0 | 0.00 | 0.00 | 0.00 | 73 | 1014.5 |
| 20260510001304 | 66 | 296 | 0.0 | 3.0 | 0.00 | 0.00 | 0.00 | 73 | 1014.5 |
| 20260510001204 | 66 | 296 | 0.0 | 3.0 | 0.00 | 0.00 | 0.00 | 73 | 1014.4 |
| 20260510001104 | 66 | 296 | 0.0 | 3.0 | 0.00 | 0.00 | 0.00 | 73 | 1014.5 |
| 20260510001004 | 66 | 97 | 0.0 | 2.0 | 0.00 | 0.00 | 0.00 | 73 | 1014.5 |
| 20260510000904 | 66 | 139 | 0.0 | 2.0 | 0.00 | 0.00 | 0.00 | 73 | 1014.5 |
| 20260510000804 | 66 | 136 | 0.0 | 2.0 | 0.00 | 0.00 | 0.00 | 73 | 1014.6 |
| 20260510000704 | 66 | 143 | 0.0 | 2.0 | 0.00 | 0.00 | 0.00 | 73 | 1014.5 |
| 20260510000604 | 66 | 179 | 0.0 | 2.0 | 0.00 | 0.00 | 0.00 | 73 | 1014.5 |
| 20260510000504 | 66 | 179 | 0.0 | 2.0 | 0.00 | 0.00 | 0.00 | 73 | 1014.5 |
| 20260510000404 | 66 | 147 | 0.0 | 2.0 | 0.00 | 0.00 | 0.00 | 73 | 1014.5 |
| 20260510000304 | 66 | 147 | 0.0 | 2.0 | 0.00 | 0.00 | 0.00 | 73 | 1014.5 |
| 20260510000204 | 66 | 147 | 0.0 | 2.0 | 0.00 | 0.00 | 0.00 | 73 | 1014.5 |
| 20260510000104 | 66 | 128 | 0.0 | 2.0 | 0.00 | 0.00 | 0.00 | 73 | 1014.5 |
| 20260510000004 | 66 | 128 | 0.0 | 2.0 | 0.00 | 0.00 | 0.00 | 73 | 1014.5 |
| 20260509235904 | 66 | 74 | 0.0 | 2.0 | 0.00 | 0.00 | 0.00 | 73 | 1014.5 |
| 20260509235804 | 66 | 72 | 0.0 | 1.0 | 0.00 | 0.00 | 0.00 | 73 | 1014.5 |
| 20260509235704 | 66 | 309 | 0.0 | 4.0 | 0.00 | 0.00 | 0.00 | 73 | 1014.5 |
| 20260509235604 | 66 | 301 | 0.0 | 4.0 | 0.00 | 0.00 | 0.00 | 73 | 1014.4 |
| 20260509235504 | 66 | 302 | 0.0 | 4.0 | 0.00 | 0.00 | 0.00 | 73 | 1014.4 |
| 20260509235404 | 66 | 302 | 0.0 | 4.0 | 0.00 | 0.00 | 0.00 | 73 | 1014.4 |
| 20260509235306 | 66 | 302 | 0.0 | 4.0 | 0.00 | 0.00 | 0.00 | 73 | 1014.4 |
| 20260509235204 | 66 | 302 | 0.0 | 4.0 | 0.00 | 0.00 | 0.00 | 73 | 1014.4 |
| 20260509235104 | 66 | 298 | 0.0 | 4.0 | 0.00 | 0.00 | 0.00 | 73 | 1014.4 |
| 20260509235004 | 66 | 299 | 0.0 | 4.0 | 0.00 | 0.00 | 0.00 | 73 | 1014.4 |
| 20260509234904 | 66 | 299 | 0.0 | 4.0 | 0.00 | 0.00 | 0.00 | 73 | 1014.4 |
| 20260509234804 | 66 | 296 | 0.0 | 4.0 | 0.00 | 0.00 | 0.00 | 73 | 1014.5 |
| 20260509234704 | 66 | 294 | 0.0 | 2.0 | 0.00 | 0.00 | 0.00 | 73 | 1014.4 |
| 20260509234604 | 66 | 288 | 0.0 | 3.0 | 0.00 | 0.00 | 0.00 | 73 | 1014.4 |
| 20260509234504 | 66 | 286 | 0.0 | 3.0 | 0.00 | 0.00 | 0.00 | 73 | 1014.4 |
| 20260509234404 | 66 | 286 | 0.0 | 3.0 | 0.00 | 0.00 | 0.00 | 73 | 1014.4 |
| 20260509234304 | 66 | 286 | 0.0 | 3.0 | 0.00 | 0.00 | 0.00 | 73 | 1014.5 |
| 20260509234204 | 66 | 284 | 0.0 | 3.0 | 0.00 | 0.00 | 0.00 | 73 | 1014.5 |
| 20260509234104 | 66 | 284 | 0.0 | 3.0 | 0.00 | 0.00 | 0.00 | 73 | 1014.5 |
| 20260509234004 | 66 | 281 | 0.0 | 3.0 | 0.00 | 0.00 | 0.00 | 73 | 1014.5 |
| 20260509233904 | 66 | 278 | 0.0 | 5.0 | 0.00 | 0.00 | 0.00 | 73 | 1014.5 |
| 20260509233804 | 66 | 279 | 0.0 | 5.0 | 0.00 | 0.00 | 0.00 | 73 | 1014.5 |
| 20260509233704 | 66 | 278 | 0.0 | 5.0 | 0.00 | 0.00 | 0.00 | 73 | 1014.5 |
| 20260509233604 | 66 | 276 | 0.0 | 5.0 | 0.00 | 0.00 | 0.00 | 73 | 1014.6 |
| 20260509233504 | 66 | 275 | 0.0 | 5.0 | 0.00 | 0.00 | 0.00 | 73 | 1014.5 |
| 20260509233404 | 66 | 275 | 0.0 | 5.0 | 0.00 | 0.00 | 0.00 | 73 | 1014.6 |
| 20260509233304 | 66 | 278 | 0.0 | 5.0 | 0.00 | 0.00 | 0.00 | 73 | 1014.6 |
| 20260509233204 | 66 | 278 | 0.0 | 5.0 | 0.00 | 0.00 | 0.00 | 73 | 1014.7 |
| 20260509233104 | 66 | 284 | 0.0 | 5.0 | 0.00 | 0.00 | 0.00 | 73 | 1014.8 |
| 20260509233004 | 66 | 260 | 0.0 | 5.0 | 0.00 | 0.00 | 0.00 | 73 | 1014.7 |
| 20260509232904 | 66 | 254 | 0.0 | 4.0 | 0.00 | 0.00 | 0.00 | 73 | 1014.7 |
| 20260509232804 | 66 | 248 | 0.0 | 4.0 | 0.00 | 0.00 | 0.00 | 73 | 1014.9 |
| 20260509232704 | 66 | 267 | 0.0 | 4.0 | 0.00 | 0.00 | 0.00 | 73 | 1014.8 |
| 20260509232604 | 66 | 281 | 1.0 | 4.0 | 0.00 | 0.00 | 0.00 | 73 | 1014.9 |
| 20260509232504 | 66 | 279 | 1.0 | 4.0 | 0.00 | 0.00 | 0.00 | 73 | 1015.0 |
| 20260509232404 | 66 | 279 | 1.0 | 4.0 | 0.00 | 0.00 | 0.00 | 73 | 1015.0 |
| 20260509232306 | 66 | 279 | 1.0 | 4.0 | 0.00 | 0.00 | 0.00 | 74 | 1015.0 |
| 20260509232204 | 66 | 279 | 1.0 | 4.0 | 0.00 | 0.00 | 0.00 | 73 | 1015.0 |
| 20260509232104 | 66 | 278 | 1.0 | 4.0 | 0.00 | 0.00 | 0.00 | 74 | 1015.2 |
| 20260509232003 | 66 | 295 | 0.0 | 4.0 | 0.00 | 0.00 | 0.00 | 74 | 1015.2 |
| 20260509231903 | 66 | 297 | 0.0 | 4.0 | 0.00 | 0.00 | 0.00 | 74 | 1015.1 |
| 20260509231803 | 66 | 297 | 1.0 | 4.0 | 0.00 | 0.00 | 0.00 | 74 | 1015.1 |
| 20260509231703 | 66 | 298 | 0.0 | 4.0 | 0.00 | 0.00 | 0.00 | 74 | 1015.1 |
| 20260509231603 | 66 | 297 | 0.0 | 3.0 | 0.00 | 0.00 | 0.00 | 74 | 1015.3 |
| 20260509231503 | 66 | 299 | 0.0 | 3.0 | 0.00 | 0.00 | 0.00 | 74 | 1015.3 |
| 20260509231403 | 66 | 299 | 1.0 | 3.0 | 0.00 | 0.00 | 0.00 | 74 | 1015.3 |
| 20260509231303 | 66 | 302 | 1.0 | 3.0 | 0.00 | 0.00 | 0.00 | 74 | 1015.4 |
| 20260509231204 | 65 | 301 | 1.0 | 3.0 | 0.00 | 0.00 | 0.00 | 74 | 1015.4 |
| 20260509231004 | 65 | 303 | 1.0 | 5.0 | 0.00 | 0.00 | 0.00 | 74 | 1015.5 |
| 20260509230904 | 65 | 300 | 1.0 | 5.0 | 0.00 | 0.00 | 0.00 | 74 | 1015.5 |
| 20260509230804 | 65 | 299 | 1.0 | 5.0 | 0.00 | 0.00 | 0.00 | 74 | 1015.5 |
| 20260509230704 | 65 | 298 | 1.0 | 5.0 | 0.00 | 0.00 | 0.00 | 74 | 1015.5 |
| 20260509230604 | 65 | 299 | 1.0 | 5.0 | 0.00 | 0.00 | 0.00 | 74 | 1015.6 |
| 20260509230504 | 65 | 293 | 1.0 | 3.0 | 0.00 | 0.00 | 0.00 | 74 | 1015.6 |
| 20260509230404 | 65 | 292 | 0.0 | 3.0 | 0.00 | 0.00 | 0.00 | 74 | 1015.6 |
| 20260509230304 | 65 | 292 | 0.0 | 3.0 | 0.00 | 0.00 | 0.00 | 74 | 1015.6 |
| 20260509230204 | 65 | 290 | 1.0 | 3.0 | 0.00 | 0.00 | 0.00 | 74 | 1015.6 |
| 20260509230104 | 65 | 284 | 0.0 | 3.0 | 0.00 | 0.00 | 0.00 | 74 | 1015.6 |
| 20260509230004 | 65 | 279 | 0.0 | 3.0 | 0.00 | 0.00 | 0.00 | 73 | 1015.8 |
| 20260509225904 | 65 | 280 | 0.0 | 3.0 | 0.00 | 0.00 | 0.00 | 74 | 1015.7 |
| 20260509225804 | 65 | 287 | 0.0 | 4.0 | 0.00 | 0.00 | 0.00 | 73 | 1015.6 |
| 20260509225704 | 65 | 283 | 0.0 | 4.0 | 0.00 | 0.00 | 0.00 | 73 | 1015.7 |
| 20260509225604 | 65 | 287 | 1.0 | 5.0 | 0.00 | 0.00 | 0.00 | 73 | 1015.6 |
| 20260509225504 | 65 | 291 | 1.0 | 5.0 | 0.00 | 0.00 | 0.00 | 73 | 1015.7 |
| 20260509225404 | 65 | 291 | 1.0 | 5.0 | 0.00 | 0.00 | 0.00 | 73 | 1015.7 |
| 20260509225306 | 65 | 291 | 1.0 | 5.0 | 0.00 | 0.00 | 0.00 | 73 | 1015.7 |
| 20260509225204 | 65 | 294 | 1.0 | 5.0 | 0.00 | 0.00 | 0.00 | 73 | 1015.8 |
| 20260509225104 | 65 | 292 | 1.0 | 5.0 | 0.00 | 0.00 | 0.00 | 73 | 1015.8 |
| 20260509225004 | 65 | 294 | 1.0 | 5.0 | 0.00 | 0.00 | 0.00 | 73 | 1015.8 |
| 20260509224904 | 65 | 297 | 1.0 | 5.0 | 0.00 | 0.00 | 0.00 | 73 | 1015.8 |
| 20260509224804 | 65 | 296 | 1.0 | 5.0 | 0.00 | 0.00 | 0.00 | 73 | 1015.8 |
| 20260509224704 | 65 | 299 | 1.0 | 5.0 | 0.00 | 0.00 | 0.00 | 73 | 1015.8 |
| 20260509224604 | 65 | 303 | 1.0 | 4.0 | 0.00 | 0.00 | 0.00 | 73 | 1015.8 |
| 20260509224504 | 65 | 310 | 0.0 | 4.0 | 0.00 | 0.00 | 0.00 | 73 | 1015.9 |
| 20260509224404 | 65 | 310 | 0.0 | 4.0 | 0.00 | 0.00 | 0.00 | 73 | 1015.8 |
| 20260509224304 | 65 | 324 | 0.0 | 4.0 | 0.00 | 0.00 | 0.00 | 73 | 1015.9 |
| 20260509224204 | 65 | 334 | 0.0 | 4.0 | 0.00 | 0.00 | 0.00 | 73 | 1015.9 |
| 20260509224104 | 65 | 27 | 0.0 | 4.0 | 0.00 | 0.00 | 0.00 | 73 | 1016.0 |
| 20260509224004 | 65 | 82 | 0.0 | 4.0 | 0.00 | 0.00 | 0.00 | 73 | 1015.9 |
| 20260509223904 | 65 | 77 | 0.0 | 2.0 | 0.00 | 0.00 | 0.00 | 73 | 1015.9 |
| 20260509223804 | 65 | 89 | 0.0 | 3.0 | 0.00 | 0.00 | 0.00 | 73 | 1016.0 |
| 20260509223704 | 65 | 89 | 0.0 | 3.0 | 0.00 | 0.00 | 0.00 | 73 | 1015.9 |
| 20260509223604 | 65 | 93 | 0.0 | 3.0 | 0.00 | 0.00 | 0.00 | 73 | 1016.0 |
| 20260509223504 | 65 | 93 | 0.0 | 3.0 | 0.00 | 0.00 | 0.00 | 73 | 1016.0 |
| 20260509223404 | 65 | 95 | 0.0 | 3.0 | 0.00 | 0.00 | 0.00 | 73 | 1016.0 |
| 20260509223304 | 65 | 104 | 0.0 | 3.0 | 0.00 | 0.00 | 0.00 | 73 | 1016.0 |
| 20260509223204 | 65 | 104 | 0.0 | 3.0 | 0.00 | 0.00 | 0.00 | 73 | 1016.0 |
| 20260509223103 | 65 | 100 | 0.0 | 3.0 | 0.00 | 0.00 | 0.00 | 73 | 1016.1 |
| 20260509223003 | 65 | 90 | 0.0 | 3.0 | 0.00 | 0.00 | 0.00 | 73 | 1016.0 |
| 20260509222904 | 65 | 46 | 0.0 | 3.0 | 0.00 | 0.00 | 0.00 | 73 | 1016.0 |
| 20260509222803 | 65 | 327 | 0.0 | 2.0 | 0.00 | 0.00 | 0.00 | 73 | 1016.0 |
| 20260509222704 | 65 | 75 | 0.0 | 5.0 | 0.00 | 0.00 | 0.00 | 73 | 1016.0 |
| 20260509222603 | 65 | 95 | 0.0 | 5.0 | 0.00 | 0.00 | 0.00 | 73 | 1016.1 |
| 20260509222503 | 65 | 104 | 1.0 | 5.0 | 0.00 | 0.00 | 0.00 | 73 | 1016.0 |
| 20260509222403 | 65 | 105 | 0.0 | 5.0 | 0.00 | 0.00 | 0.00 | 73 | 1016.0 |
| 20260509222306 | 65 | 105 | 0.0 | 5.0 | 0.00 | 0.00 | 0.00 | 74 | 1016.0 |
| 20260509222203 | 65 | 103 | 1.0 | 5.0 | 0.00 | 0.00 | 0.00 | 74 | 1016.0 |
| 20260509222103 | 65 | 105 | 1.0 | 5.0 | 0.00 | 0.00 | 0.00 | 74 | 1016.0 |
| 20260509222004 | 65 | 112 | 1.0 | 5.0 | 0.00 | 0.00 | 0.00 | 74 | 1016.1 |
| 20260509221903 | 65 | 112 | 1.0 | 5.0 | 0.00 | 0.00 | 0.00 | 74 | 1016.0 |
| 20260509221803 | 65 | 113 | 1.0 | 5.0 | 0.00 | 0.00 | 0.00 | 74 | 1016.0 |
| 20260509221703 | 65 | 115 | 1.0 | 4.0 | 0.00 | 0.00 | 0.00 | 74 | 1016.0 |
| 20260509221603 | 65 | 116 | 1.0 | 4.0 | 0.00 | 0.00 | 0.00 | 74 | 1015.9 |
| 20260509221503 | 65 | 118 | 0.0 | 3.0 | 0.00 | 0.00 | 0.00 | 74 | 1016.0 |
| 20260509221403 | 65 | 113 | 0.0 | 3.0 | 0.00 | 0.00 | 0.00 | 74 | 1016.0 |
| 20260509221303 | 65 | 113 | 0.0 | 3.0 | 0.00 | 0.00 | 0.00 | 74 | 1016.0 |
| 20260509221203 | 65 | 115 | 0.0 | 3.0 | 0.00 | 0.00 | 0.00 | 74 | 1016.0 |
| 20260509221103 | 65 | 117 | 1.0 | 3.0 | 0.00 | 0.00 | 0.00 | 74 | 1016.0 |
| 20260509221003 | 65 | 111 | 0.0 | 3.0 | 0.00 | 0.00 | 0.00 | 74 | 1016.1 |
| 20260509220903 | 65 | 112 | 0.0 | 3.0 | 0.00 | 0.00 | 0.00 | 74 | 1016.0 |
| 20260509220803 | 65 | 108 | 0.0 | 3.0 | 0.00 | 0.00 | 0.00 | 74 | 1016.0 |
| 20260509220703 | 65 | 314 | 1.0 | 4.0 | 0.00 | 0.00 | 0.00 | 74 | 1016.0 |
| 20260509220603 | 65 | 269 | 1.0 | 4.0 | 0.00 | 0.00 | 0.00 | 74 | 1016.1 |
| 20260509220503 | 65 | 151 | 1.0 | 4.0 | 0.00 | 0.00 | 0.00 | 74 | 1016.0 |
| 20260509220403 | 65 | 164 | 1.0 | 4.0 | 0.00 | 0.00 | 0.00 | 74 | 1016.1 |
| 20260509220303 | 65 | 257 | 0.0 | 4.0 | 0.00 | 0.00 | 0.00 | 74 | 1016.1 |
| 20260509220203 | 65 | 250 | 0.0 | 4.0 | 0.00 | 0.00 | 0.00 | 74 | 1016.1 |
| 20260509220103 | 65 | 259 | 0.0 | 4.0 | 0.00 | 0.00 | 0.00 | 74 | 1016.1 |
| 20260509220041 | 65 | 271 | 0.0 | 4.0 | 0.00 | 0.00 | 0.00 | 74 | 1016.2 |
| 20260509215903 | 65 | 281 | 0.0 | 4.0 | 0.00 | 0.00 | 0.00 | 74 | 1016.1 |
| 20260509215803 | 65 | 283 | 0.0 | 4.0 | 0.00 | 0.00 | 0.00 | 74 | 1016.2 |
| 20260509215703 | 65 | 183 | 0.0 | 3.0 | 0.00 | 0.00 | 0.00 | 74 | 1016.2 |
| 20260509215603 | 65 | 185 | 0.0 | 3.0 | 0.00 | 0.00 | 0.00 | 74 | 1016.2 |
| 20260509215503 | 65 | 289 | 0.0 | 3.0 | 0.00 | 0.00 | 0.00 | 74 | 1016.1 |
| 20260509215403 | 65 | 289 | 0.0 | 3.0 | 0.00 | 0.00 | 0.00 | 74 | 1016.2 |
| 20260509215306 | 65 | 282 | 0.0 | 3.0 | 0.00 | 0.00 | 0.00 | 74 | 1016.1 |
| 20260509215203 | 65 | 291 | 0.0 | 3.0 | 0.00 | 0.00 | 0.00 | 74 | 1016.1 |
| 20260509215103 | 65 | 267 | 0.0 | 3.0 | 0.00 | 0.00 | 0.00 | 74 | 1016.2 |
| 20260509215003 | 65 | 276 | 0.0 | 3.0 | 0.00 | 0.00 | 0.00 | 74 | 1016.2 |
| 20260509214903 | 65 | 278 | 0.0 | 3.0 | 0.00 | 0.00 | 0.00 | 74 | 1016.2 |
| 20260509214803 | 66 | 141 | 0.0 | 3.0 | 0.00 | 0.00 | 0.00 | 74 | 1016.1 |
| 20260509214703 | 66 | 124 | 0.0 | 4.0 | 0.00 | 0.00 | 0.00 | 74 | 1016.1 |
| 20260509214603 | 66 | 112 | 0.0 | 4.0 | 0.00 | 0.00 | 0.00 | 74 | 1016.1 |
| 20260509214503 | 66 | 109 | 0.0 | 4.0 | 0.00 | 0.00 | 0.00 | 74 | 1016.1 |
| 20260509214403 | 65 | 109 | 0.0 | 4.0 | 0.00 | 0.00 | 0.00 | 74 | 1016.1 |
| 20260509214303 | 66 | 109 | 0.0 | 4.0 | 0.00 | 0.00 | 0.00 | 74 | 1016.1 |
| 20260509214203 | 66 | 113 | 0.0 | 4.0 | 0.00 | 0.00 | 0.00 | 74 | 1016.1 |
| 20260509214103 | 66 | 103 | 0.0 | 4.0 | 0.00 | 0.00 | 0.00 | 74 | 1016.2 |
| 20260509214003 | 66 | 102 | 0.0 | 4.0 | 0.00 | 0.00 | 0.00 | 74 | 1016.1 |
| 20260509213903 | 66 | 102 | 0.0 | 4.0 | 0.00 | 0.00 | 0.00 | 74 | 1016.1 |
| 20260509213803 | 66 | 93 | 0.0 | 4.0 | 0.00 | 0.00 | 0.00 | 74 | 1016.1 |
| 20260509213703 | 66 | 88 | 0.0 | 3.0 | 0.00 | 0.00 | 0.00 | 74 | 1016.1 |
| 20260509213603 | 66 | 89 | 0.0 | 3.0 | 0.00 | 0.00 | 0.00 | 74 | 1016.1 |
| 20260509213503 | 66 | 99 | 0.0 | 3.0 | 0.00 | 0.00 | 0.00 | 74 | 1016.1 |
| 20260509213403 | 66 | 89 | 0.0 | 3.0 | 0.00 | 0.00 | 0.00 | 74 | 1016.2 |
| 20260509213303 | 66 | 89 | 0.0 | 3.0 | 0.00 | 0.00 | 0.00 | 74 | 1016.1 |
| 20260509213203 | 66 | 89 | 0.0 | 3.0 | 0.00 | 0.00 | 0.00 | 74 | 1016.1 |
| 20260509213103 | 66 | 116 | 0.0 | 3.0 | 0.00 | 0.00 | 0.00 | 74 | 1016.2 |
| 20260509213003 | 66 | 116 | 0.0 | 3.0 | 0.00 | 0.00 | 0.00 | 74 | 1016.2 |
| 20260509212903 | 66 | 115 | 0.0 | 3.0 | 0.00 | 0.00 | 0.00 | 74 | 1016.1 |
| 20260509212803 | 66 | 117 | 0.0 | 3.0 | 0.00 | 0.00 | 0.00 | 74 | 1016.2 |
| 20260509212703 | 66 | 201 | 0.0 | 3.0 | 0.00 | 0.00 | 0.00 | 74 | 1016.2 |
| 20260509212603 | 66 | 23 | 0.0 | 3.0 | 0.00 | 0.00 | 0.00 | 74 | 1016.2 |
| 20260509212503 | 66 | 274 | 0.0 | 3.0 | 0.00 | 0.00 | 0.00 | 74 | 1016.2 |
| 20260509212403 | 66 | 274 | 0.0 | 3.0 | 0.00 | 0.00 | 0.00 | 74 | 1016.2 |
| 20260509212305 | 66 | 274 | 0.0 | 3.0 | 0.00 | 0.00 | 0.00 | 74 | 1016.2 |
| 20260509212203 | 66 | 274 | 0.0 | 3.0 | 0.00 | 0.00 | 0.00 | 74 | 1016.2 |
| 20260509212103 | 66 | 271 | 0.0 | 3.0 | 0.00 | 0.00 | 0.00 | 74 | 1016.1 |
| 20260509212003 | 66 | 282 | 0.0 | 3.0 | 0.00 | 0.00 | 0.00 | 74 | 1016.1 |
| 20260509211903 | 66 | 282 | 0.0 | 3.0 | 0.00 | 0.00 | 0.00 | 74 | 1016.1 |
| 20260509211803 | 66 | 274 | 0.0 | 3.0 | 0.00 | 0.00 | 0.00 | 74 | 1016.3 |
| 20260509211703 | 66 | 355 | 0.0 | 3.0 | 0.00 | 0.00 | 0.00 | 74 | 1016.2 |
| 20260509211603 | 66 | 57 | 0.0 | 3.0 | 0.00 | 0.00 | 0.00 | 74 | 1016.3 |
| 20260509211503 | 66 | 27 | 0.0 | 3.0 | 0.00 | 0.00 | 0.00 | 74 | 1016.2 |
| 20260509211403 | 66 | 55 | 0.0 | 3.0 | 0.00 | 0.00 | 0.00 | 74 | 1016.2 |
| 20260509211303 | 66 | 56 | 0.0 | 3.0 | 0.00 | 0.00 | 0.00 | 74 | 1016.2 |
| 20260509211203 | 66 | 71 | 0.0 | 3.0 | 0.00 | 0.00 | 0.00 | 74 | 1016.2 |
| 20260509211103 | 66 | 79 | 0.0 | 3.0 | 0.00 | 0.00 | 0.00 | 74 | 1016.2 |
| 20260509211003 | 66 | 87 | 0.0 | 3.0 | 0.00 | 0.00 | 0.00 | 74 | 1016.2 |
| 20260509210903 | 66 | 87 | 0.0 | 3.0 | 0.00 | 0.00 | 0.00 | 74 | 1016.2 |
| 20260509210803 | 66 | 73 | 0.0 | 3.0 | 0.00 | 0.00 | 0.00 | 74 | 1016.2 |
| 20260509210703 | 66 | 99 | 0.0 | 4.0 | 0.00 | 0.00 | 0.00 | 74 | 1016.2 |
| 20260509210603 | 66 | 94 | 0.0 | 4.0 | 0.00 | 0.00 | 0.00 | 74 | 1016.2 |
| 20260509210503 | 66 | 94 | 0.0 | 4.0 | 0.00 | 0.00 | 0.00 | 74 | 1016.2 |
| 20260509210403 | 66 | 101 | 0.0 | 4.0 | 0.00 | 0.00 | 0.00 | 74 | 1016.2 |
| 20260509210303 | 66 | 103 | 0.0 | 4.0 | 0.00 | 0.00 | 0.00 | 74 | 1016.2 |
| 20260509210203 | 66 | 98 | 0.0 | 4.0 | 0.00 | 0.00 | 0.00 | 74 | 1016.2 |
| 20260509210003 | 66 | 100 | 0.0 | 4.0 | 0.00 | 0.00 | 0.00 | 74 | 1016.3 |
| 20260509205903 | 66 | 110 | 0.0 | 4.0 | 0.00 | 0.00 | 0.00 | 74 | 1016.3 |
| 20260509205803 | 66 | 127 | 0.0 | 4.0 | 0.00 | 0.00 | 0.00 | 74 | 1016.4 |
| 20260509205703 | 66 | 161 | 0.0 | 3.0 | 0.00 | 0.00 | 0.00 | 74 | 1016.4 |
| 20260509205603 | 66 | 161 | 0.0 | 3.0 | 0.00 | 0.00 | 0.00 | 74 | 1016.4 |
| 20260509205503 | 66 | 136 | 0.0 | 3.0 | 0.00 | 0.00 | 0.00 | 74 | 1016.4 |
| 20260509205403 | 66 | 131 | 0.0 | 3.0 | 0.00 | 0.00 | 0.00 | 74 | 1016.4 |
| 20260509205307 | 66 | 131 | 0.0 | 3.0 | 0.00 | 0.00 | 0.00 | 74 | 1016.4 |
| 20260509205204 | 66 | 122 | 0.0 | 3.0 | 0.00 | 0.00 | 0.00 | 74 | 1016.3 |
| 20260509205104 | 66 | 116 | 0.0 | 3.0 | 0.00 | 0.00 | 0.00 | 74 | 1016.4 |
| 20260509205004 | 66 | 118 | 0.0 | 3.0 | 0.00 | 0.00 | 0.00 | 74 | 1016.4 |
| 20260509204904 | 66 | 114 | 0.0 | 3.0 | 0.00 | 0.00 | 0.00 | 74 | 1016.4 |
| 20260509204804 | 66 | 102 | 0.0 | 3.0 | 0.00 | 0.00 | 0.00 | 75 | 1016.4 |
| 20260509204704 | 66 | 107 | 0.0 | 3.0 | 0.00 | 0.00 | 0.00 | 75 | 1016.4 |
| 20260509204604 | 66 | 107 | 0.0 | 3.0 | 0.00 | 0.00 | 0.00 | 75 | 1016.4 |
| 20260509204504 | 66 | 107 | 0.0 | 3.0 | 0.00 | 0.00 | 0.00 | 75 | 1016.4 |
| 20260509204404 | 66 | 103 | 0.0 | 3.0 | 0.00 | 0.00 | 0.00 | 75 | 1016.4 |
| 20260509204304 | 66 | 103 | 0.0 | 3.0 | 0.00 | 0.00 | 0.00 | 75 | 1016.4 |
| 20260509204204 | 66 | 98 | 0.0 | 3.0 | 0.00 | 0.00 | 0.00 | 75 | 1016.5 |
| 20260509204104 | 66 | 99 | 0.0 | 3.0 | 0.00 | 0.00 | 0.00 | 75 | 1016.4 |
| 20260509204004 | 66 | 112 | 0.0 | 1.0 | 0.00 | 0.00 | 0.00 | 75 | 1016.4 |
| 20260509203904 | 66 | 109 | 0.0 | 3.0 | 0.00 | 0.00 | 0.00 | 75 | 1016.4 |
| 20260509203804 | 66 | 110 | 0.0 | 3.0 | 0.00 | 0.00 | 0.00 | 74 | 1016.4 |
| 20260509203704 | 66 | 110 | 0.0 | 3.0 | 0.00 | 0.00 | 0.00 | 74 | 1016.5 |
| 20260509203604 | 66 | 110 | 0.0 | 3.0 | 0.00 | 0.00 | 0.00 | 74 | 1016.4 |
| 20260509203504 | 66 | 109 | 0.0 | 3.0 | 0.00 | 0.00 | 0.00 | 74 | 1016.4 |
| 20260509203404 | 66 | 109 | 0.0 | 3.0 | 0.00 | 0.00 | 0.00 | 74 | 1016.5 |
| 20260509203304 | 66 | 109 | 0.0 | 3.0 | 0.00 | 0.00 | 0.00 | 74 | 1016.4 |
| 20260509203204 | 66 | 109 | 0.0 | 3.0 | 0.00 | 0.00 | 0.00 | 74 | 1016.3 |
| 20260509203104 | 66 | 109 | 0.0 | 3.0 | 0.00 | 0.00 | 0.00 | 74 | 1016.4 |
| 20260509203004 | 66 | 109 | 0.0 | 3.0 | 0.00 | 0.00 | 0.00 | 74 | 1016.4 |
| 20260509202904 | 66 | 116 | 0.0 | 3.0 | 0.00 | 0.00 | 0.00 | 74 | 1016.4 |
| 20260509202804 | 66 | 135 | 0.0 | 1.0 | 0.00 | 0.00 | 0.00 | 74 | 1016.4 |
| 20260509202704 | 66 | 114 | 0.0 | 2.0 | 0.00 | 0.00 | 0.00 | 74 | 1016.5 |
| 20260509202604 | 66 | 109 | 0.0 | 2.0 | 0.00 | 0.00 | 0.00 | 74 | 1016.5 |
| 20260509202504 | 66 | 109 | 0.0 | 2.0 | 0.00 | 0.00 | 0.00 | 74 | 1016.5 |
| 20260509202404 | 66 | 109 | 0.0 | 2.0 | 0.00 | 0.00 | 0.00 | 74 | 1016.4 |
| 20260509202306 | 66 | 109 | 0.0 | 2.0 | 0.00 | 0.00 | 0.00 | 74 | 1016.4 |
| 20260509202204 | 66 | 109 | 0.0 | 2.0 | 0.00 | 0.00 | 0.00 | 74 | 1016.5 |
| 20260509202104 | 66 | 109 | 0.0 | 2.0 | 0.00 | 0.00 | 0.00 | 74 | 1016.5 |
| 20260509202004 | 66 | 110 | 0.0 | 2.0 | 0.00 | 0.00 | 0.00 | 75 | 1016.6 |
| 20260509201904 | 66 | 107 | 0.0 | 2.0 | 0.00 | 0.00 | 0.00 | 75 | 1016.7 |
| 20260509201804 | 66 | 105 | 0.0 | 2.0 | 0.00 | 0.00 | 0.00 | 75 | 1016.6 |
| 20260509201704 | 66 | 95 | 0.0 | 2.0 | 0.00 | 0.00 | 0.00 | 75 | 1016.6 |
| 20260509201604 | 66 | 95 | 0.0 | 2.0 | 0.00 | 0.00 | 0.00 | 75 | 1016.6 |
| 20260509201504 | 66 | 95 | 0.0 | 2.0 | 0.00 | 0.00 | 0.00 | 75 | 1016.7 |
| 20260509201404 | 66 | 95 | 0.0 | 2.0 | 0.00 | 0.00 | 0.00 | 75 | 1016.7 |
| 20260509201304 | 66 | 95 | 0.0 | 2.0 | 0.00 | 0.00 | 0.00 | 75 | 1016.6 |
| 20260509201203 | 66 | 95 | 0.0 | 2.0 | 0.00 | 0.00 | 0.00 | 75 | 1016.6 |
| 20260509201104 | 66 | 95 | 0.0 | 2.0 | 0.00 | 0.00 | 0.00 | 75 | 1016.6 |
| 20260509201003 | 66 | 74 | 0.0 | 2.0 | 0.00 | 0.00 | 0.00 | 75 | 1016.7 |
| 20260509200904 | 66 | 58 | 0.0 | 2.0 | 0.00 | 0.00 | 0.00 | 75 | 1016.7 |
| 20260509200804 | 66 | 49 | 0.0 | 2.0 | 0.00 | 0.00 | 0.00 | 75 | 1016.6 |
| 20260509200704 | 66 | 22 | 0.0 | 1.0 | 0.00 | 0.00 | 0.00 | 75 | 1016.7 |
| 20260509200604 | 66 | 22 | 0.0 | 1.0 | 0.00 | 0.00 | 0.00 | 75 | 1016.7 |
| 20260509200504 | 66 | 22 | 0.0 | 1.0 | 0.00 | 0.00 | 0.00 | 76 | 1016.7 |
| 20260509200404 | 66 | 326 | 0.0 | 1.0 | 0.00 | 0.00 | 0.00 | 76 | 1016.7 |
| 20260509200304 | 66 | 326 | 0.0 | 1.0 | 0.00 | 0.00 | 0.00 | 76 | 1016.8 |
| 20260509200204 | 66 | 123 | 0.0 | 3.0 | 0.00 | 0.00 | 0.00 | 76 | 1016.8 |
| 20260509200103 | 66 | 140 | 0.0 | 3.0 | 0.00 | 0.00 | 0.00 | 76 | 1016.8 |
| 20260509200004 | 66 | 122 | 0.0 | 3.0 | 0.00 | 0.00 | 0.00 | 76 | 1016.9 |
| 20260509195904 | 66 | 135 | 0.0 | 3.0 | 0.00 | 0.00 | 0.00 | 76 | 1016.9 |
| 20260509195804 | 66 | 135 | 0.0 | 3.0 | 0.00 | 0.00 | 0.00 | 77 | 1016.9 |
| 20260509195704 | 66 | 138 | 0.0 | 3.0 | 0.00 | 0.00 | 0.00 | 77 | 1016.9 |
| 20260509195603 | 66 | 138 | 0.0 | 3.0 | 0.00 | 0.00 | 0.00 | 77 | 1016.9 |
| 20260509195504 | 66 | 138 | 0.0 | 3.0 | 0.00 | 0.00 | 0.00 | 77 | 1016.9 |
| 20260509195403 | 66 | 119 | 0.0 | 3.0 | 0.00 | 0.00 | 0.00 | 77 | 1016.9 |
| 20260509195306 | 66 | 118 | 0.0 | 3.0 | 0.00 | 0.00 | 0.00 | 77 | 1016.9 |
| 20260509195203 | 66 | 107 | 0.0 | 4.0 | 0.00 | 0.00 | 0.00 | 77 | 1016.9 |
| 20260509195103 | 66 | 107 | 0.0 | 4.0 | 0.00 | 0.00 | 0.00 | 77 | 1016.9 |
| 20260509195004 | 66 | 112 | 0.0 | 4.0 | 0.00 | 0.00 | 0.00 | 77 | 1017.0 |
| 20260509194903 | 66 | 114 | 0.0 | 4.0 | 0.00 | 0.00 | 0.00 | 77 | 1016.9 |